     2              OBSERVATION DATA    GPS                 RINEX VERSION / TYPE
teqc 2000Jul20 Karen Wendt 20030408 21:32:49UTC             PGM / RUN BY / DATE
                                                            COMMENT
L2: 1 -> 1; 150 -> 5; 250 -> 9                              COMMENT
L2: 1 -> 1; 150 -> 5; 250 -> 9                              COMMENT
L2: 1 -> 1; 150 -> 5; 250 -> 9                              COMMENT
L2: 1 -> 1; 150 -> 5; 250 -> 9                              COMMENT
L2: 1 -> 1; 150 -> 5; 250 -> 9                              COMMENT
L2: 1 -> 1; 150 -> 5; 250 -> 9                              COMMENT
L2: 1 -> 1; 150 -> 5; 250 -> 9                              COMMENT
L2: 1 -> 1; 150 -> 5; 250 -> 9                              COMMENT
L2: 1 -> 1; 150 -> 5; 250 -> 9                              COMMENT
L2: 1 -> 1; 150 -> 5; 250 -> 9                              COMMENT
L2: 1 -> 1; 150 -> 5; 250 -> 9                              COMMENT
L2: 1 -> 1; 150 -> 5; 250 -> 9                              COMMENT
L2: 1 -> 1; 150 -> 5; 250 -> 9                              COMMENT
L2: 1 -> 1; 150 -> 5; 250 -> 9                              COMMENT
Original Marker Name: kngr Kenger_DWR                       COMMENT
Campaign Name: USGS 2003                                    COMMENT
4-Character Station Name: KNGR                              COMMENT
6-Character Antenna Code: DMRCHT                            COMMENT
Vertical Measurement Point: BCR                             COMMENT
Vertical Offset to Rinex Ref. Point: 0.0348                 COMMENT
Radial Measurement Point: ECF                               COMMENT
Radial Offset to Rinex Ref. Point: 0.1897                   COMMENT
Antenna Height from Field Measurement: 1.3390 m             COMMENT
Additional Antenna Identification Info.:                    COMMENT
Turborogue and Ashtech Choke Ring                           COMMENT
Original XYZ: -2613276.1189 -4463696.4126 3721027.3637      COMMENT
New XYZ position is based on association with SCEC monument COMMENT
E1F1N3P3+0011. Position of that monument is believed to be  COMMENT
valid to within 1 m horizontally; vertical accuracy         COMMENT
should be no worse than 3-times this value.                 COMMENT
                                                            COMMENT
Revised Rinex header created by UCSD GPS archive for        COMMENT
GSAC on 11-Jul-2003 (2003:192) 16:27:36 GMT                 COMMENT
For assistance contact dagnew@ucsd.edu                      COMMENT
or anderson@python.ucsd.edu                                 COMMENT
                                                            COMMENT
KENGER DWR                                                  MARKER NAME
JMS US GEOLOGICAL SURVEY                                    OBSERVER / AGENCY
LP020000801 ASHTECH Z-XII3 CD00                             REC # / TYPE / VERS
CR14244 DORNE-MARGOL. TYPE T                                ANT # / TYPE
 -2613293.0109 -4463665.9242  3721002.5062                  APPROX POSITION XYZ
        1.2907        0.0000        0.0000                  ANTENNA: DELTA H/E/N
     1     1     0                                          WAVELENGTH FACT L1/2
     5    C1    L1    L2    P1    P2                        # / TYPES OF OBSERV
    30                                                      INTERVAL
  2003     3    27    22     9    0.000000                  TIME OF FIRST OBS
  2003     3    27    23    59   30.000000                  TIME OF LAST OBS
                                                            END OF HEADER
 03  3 27 22  9  0.0000000  0  8G15G26G17G 6G23G18G29G16
  22209528.307     -153774.05549   -108975.39346  22209527.544    22209535.547
  21952928.110      -70199.23749    -46769.03846  21952927.305
  21952934.151      -32039.31249    -23990.36343
  20617732.460      118665.86449     84763.97347  20617732.211    20617738.507
  21104204.049     -115970.01949    -83756.00647  21104203.444    21104210.727
  21727676.352     -191091.43849   -136929.21947  21727675.873    21727682.391
  22965206.236       34541.32149     25171.93246  22965206.219    22965212.946
  23355334.666      -64438.60649    -46831.15345  23355334.199    23355340.934
 03  3 27 22  9 30.0000000  0  9G30G15G26G17G 6G23G18G29G16
                    329790.05549    229684.70445                  24361769.775
  22198732.843     -210504.57449   -153180.91246  22198732.128    22198740.134
  21948002.976      -96081.24649    -66936.78946  21948002.134
  21948008.927      -43539.42049     -5315.22647                  20902158.580
  20626145.631      162876.95849    119214.15747  20626145.277    20626151.623
  21095996.260     -159104.80949   -117367.46048  21095995.156    21096002.451
  21714198.349     -261919.54949   -192119.84747  21714197.694    21714204.227
  22967771.156       48017.09249     35672.54346  22967770.543    22967777.367
  23349895.849      -93017.93849    -69100.73145  23349895.144    23349902.377
 03  3 27 22 10  0.0000000  0  9G30G15G26G17G 6G23G18G29G16
  24375190.737      400395.28349    284701.38745  24375190.667    24375206.126
  22180496.303     -306338.08449   -227856.30246  22180495.593    22180503.608
  21935721.501     -160619.14249   -117226.01746  21935720.956    21935727.796
  20892529.844      -94106.09849    -44717.81447  20892529.213    20892536.148
  20627177.833      168301.09749    123440.74747  20627177.462    20627183.826
  21080404.250     -241040.61349   -181213.47148  21080403.300    21080410.588
  21693321.495     -371628.00349   -277606.84847  21693320.847    21693327.382
  22962969.707       22786.72349     16012.54346  22962969.357    22962976.130
  23337091.021     -160307.71649   -121534.29245  23337090.398    23337097.536
 03  3 27 22 10 30.0000000  0  9G30G15G26G17G 6G23G18G29G16
  24395050.944      504761.16249    366025.05845  24395050.738    24395066.656
  22168723.459     -368204.76549   -276064.03346  22168722.732    22168730.758
  21929989.190     -190741.56149   -140697.99946  21929988.805    21929995.665
  20889377.916     -110669.83349    -57624.60548  20889377.275    20889384.208
  20634733.702      208007.45649    154380.75747  20634733.341    20634739.726
  21071333.378     -288707.52449   -218356.44948  21071332.570    21071339.835
  21678950.760     -447146.23649   -336452.11647  21678950.135    21678956.687
  22964707.706       31920.01549     23129.40946  22964707.384    22964714.166
  23330824.511     -193237.78549   -147194.06445  23330823.967    23330831.177
 03  3 27 22 11  0.0000000  0  9G30G15G26G17G 6G23G18G29G16
  24414899.215      609064.74549    447300.16645  24414899.446    24414915.078
  22156978.500     -429924.88749   -324157.57746  22156977.744    22156985.734
  21924370.619     -220266.95449   -163704.77546  21924370.334    21924377.199
  20886260.670     -127051.26249    -70389.34148  20886260.023    20886266.951
  20642377.411      248175.36949    185680.41747  20642377.050    20642383.436
  21062348.031     -335925.54649   -255149.64348  21062347.260    21062354.534
  21664650.706     -522293.09849   -395008.00747  21664650.105    21664656.681
  22966548.979       41596.50449     30669.56346  22966548.729    22966555.541
  23324660.934     -225627.43949   -172432.71345  23324660.344    23324667.568
 03  3 27 22 11 30.0000000  0  9G30G15G26G17G 6G23G18G29G16
  24434734.744      713300.83549    528522.72445  24434735.165    24434750.636
  22145260.898     -491501.14449   -372139.00746  22145260.145    22145268.159
  21918865.543     -249196.15849   -186246.98446  21918865.295    21918872.153
  20883177.611     -143252.87549    -83013.95148  20883176.967    20883183.911
  20650108.450      288802.15549    217337.63947  20650108.098    20650114.485
  21053447.692     -382696.94849   -291594.82548  21053446.932    21053454.190
  21650420.976     -597070.26149   -453275.82347  21650420.386    21650426.970
  22968493.302       51813.77149     38631.08946  22968493.054    22968499.804
  23318599.802     -257478.71949   -197251.84845  23318599.249    23318606.559
 03  3 27 22 12  0.0000000  0  9G30G15G26G17G 6G23G18G29G16
  24454557.448      817468.48249    609691.89245  24454557.602    24454573.358
  22133571.038     -552931.65149   -420006.86646  22133570.258    22133578.310
  21913474.590     -277525.61649   -208321.85746  21913474.348    21913481.230
  20880129.157     -159272.88849    -95497.06248  20880128.448    20880135.390
  20657927.080      329889.28449    249353.56647  20657926.735    20657933.116
  21044632.769     -429019.52649   -327690.27648  21044632.034    21044639.271
  21636262.271     -671474.44349   -511253.00147  21636261.678    21636268.270
  22970540.844       62573.65349     47015.45546  22970540.605    22970547.358
  23312641.603     -288789.12249   -221649.50545  23312641.034    23312648.368
 03  3 27 22 12 30.0000000  0  9G30G15G26G17G 6G23G18G29G16
  24474366.306      921564.54249    690805.30345  24474366.458    24474382.486
  22121908.791     -614216.74049   -467761.41546  22121908.002    22121916.075
  21908197.988     -305254.15349   -229928.48246  21908197.800    21908204.672
  20877115.149     -175111.74349   -107839.00748  20877114.424    20877121.362
  20665833.200      371435.91749    281727.54847  20665832.851    20665839.212
  21035903.212     -474893.38649   -363436.08048  21035902.488    21035909.717
  21622174.716     -745504.79849   -568938.89347  21622174.131    21622180.721
  22972691.535       73875.54049     55822.15246  22972691.277    22972698.036
  23306786.373     -319558.19749   -245625.37945  23306785.838    23306793.203
 03  3 27 22 13  0.0000000  0  9G30G15G26G17G 6G23G18G29G16
  24494161.292     1025587.22549    771861.53645  24494161.405    24494177.621
  22110274.456     -675355.74449   -515402.12946  22110273.626    22110281.665
  21903036.222     -332379.16549   -251064.83546  21903036.054    21903042.909
  20874135.686     -190769.02349   -120039.46348  20874134.977    20874141.891
  20673826.875      413442.58949    314459.99747  20673826.518    20673832.822
  21027259.286     -520317.37449   -398831.33248  21027258.562    21027265.768
  21608158.633     -819159.44649   -626332.02147  21608158.034    21608164.620
  22974945.515       85720.28049     65051.85446  22974945.267    22974951.933
  23301034.478     -349784.81549   -269178.56245  23301033.960    23301041.192
 03  3 27 22 13 30.0000000  0  9G30G15G26G17G 6G23G18G29G16
  24513941.302     1129532.39549    852857.35545  24513941.561    24513958.040
  22098667.569     -736349.90949   -562929.98146  22098666.771    22098674.763
  21897989.373     -358900.60149   -271730.86946  21897989.237    21897996.044
  20871190.532     -206246.14349   -132099.53548  20871189.786    20871196.657
  20681907.677      455907.24749    347549.32147  20681907.323    20681913.591
  21018700.744     -565292.74949   -433877.02248  21018700.017    21018707.213
  21594213.968     -892438.83449   -683432.74847  21594213.367    21594219.952
  22977302.476       98106.28849     74703.32046  22977302.244    22977308.903
  23295385.678     -379469.89449   -292309.76145  23295385.130    23295392.338
 03  3 27 22 14  0.0000000  0  9G30G15G26G17G 6G23G18G29G16
  24533706.397     1233397.56949    933790.82545  24533706.598    24533723.308
  22087088.319     -797199.08049   -610344.85346  22087087.537    22087095.440
  21893057.752     -384816.45449   -291925.01546  21893057.641    21893064.389
  20868279.608     -221543.32949   -144019.39948  20868278.891    20868285.724
  20690075.727      498830.12449    380995.70647  20690075.369    20690081.584
  21010227.623     -609819.03349   -468572.76748  21010226.903    21010234.078
  21580340.957     -965341.56749   -740239.98247  21580340.361    21580346.960
  22979762.464      111033.67949     84776.62746  22979762.261    22979768.890
  23289840.150     -408612.20349   -315018.02846  23289839.659    23289846.662
 03  3 27 22 14 30.0000000  0  9G30G15G26G17G 6G23G18G29G16
  24553455.734     1337179.44649   1014659.39045  24553455.757    24553472.918
  22075536.553     -857903.86849   -657647.21646  22075535.755    22075543.619
  21888241.546     -410125.81349   -311646.56846  21888241.446    21888248.170
  20865402.816     -236661.18049   -155799.52248  20865402.083    20865408.860
  20698330.692      542209.89849    414798.11047  20698330.324    20698336.505
  21001839.918     -653896.62949   -502918.88648  21001839.189    21001846.338
  21566539.776    -1037866.99249   -796753.21147  21566539.156    21566545.760
  22982325.371      124501.69349     95271.20746  22982325.148    22982331.722
  23284397.850     -437211.87649   -337303.45946  23284397.357    23284404.289
 03  3 27 22 15  0.0000000  0  9G30G15G26G17G 6G23G18G29G16
  24573188.524     1440875.89449   1095461.37445  24573188.725    24573206.095
  22064012.370     -918463.73749   -704836.65146  22064011.582    22064019.345
  21883541.219     -434826.52349   -330893.84746  21883541.150    21883547.786
  20862560.284     -251598.95749   -167439.32848  20862559.541    20862566.289
  20706672.605      586046.71649    448956.64647  20706672.249    20706678.386
  20993537.776     -697524.61649   -536914.65848  20993537.047    20993544.163
  21552810.657    -1110013.64649   -852971.29047  21552810.040    21552816.626
  22984991.211      138510.69949    106187.33246  22984990.962    22984997.556
  23279059.058     -465267.95049   -359165.31046  23279058.493    23279065.370
 03  3 27 22 15 30.0000000  0  9G30G15G26G17G 6G23G18G29G16
  24592904.834     1544484.64649   1176195.01845  24592904.996    24592922.592
  22052515.824     -978878.53549   -751913.05646  22052515.002    22052522.727
  21878956.994     -458916.75649   -349665.43546  21878956.923    21878963.561
  20859751.978     -266356.75349   -178938.89448  20859751.235    20859757.991
  20715101.456      630340.37949    483471.16747  20715101.094    20715107.219
  20985321.241     -740702.63149   -570559.81048  20985320.515    20985327.622
  21539153.852    -1181780.13149   -908893.14447  21539153.255    21539159.854
  22987760.062      153060.78649    117525.07646  22987759.785    22987766.347
  23273823.740     -492779.96549   -380603.22346  23273823.178    23273829.985
 03  3 27 22 16  0.0000000  0  9G30G15G26G17G 6G23G18G29G16
  24612604.110     1648002.70549   1256858.01245  24612604.098    24612621.738
  22041046.855    -1039148.24449   -798876.39846  22041046.071    22041053.733
  21874489.205     -482395.38649   -367960.43546  21874489.096    21874495.751
  20856977.864     -280934.96449   -190298.51648  20856977.125    20856983.858
  20723617.093      675090.22749    518341.14647  20723616.749    20723622.879
  20977190.298     -783430.84649   -603854.46148  20977189.574    20977196.671
  21525569.549    -1253165.66049   -964518.15147  21525568.969    21525575.582
  22990631.704      168151.49749    129284.07246  22990631.447    22990638.025
  23268691.997     -519747.39049   -401616.77146  23268691.450    23268698.237
 03  3 27 22 16 30.0000000  0  9G30G15G26G17G 6G23G18G29G16
  24632285.534     1751427.42349   1337448.21945  24632285.613    24632303.407
  22029605.575    -1099272.68749   -845726.54346  22029604.762    22029612.370
  21870138.011     -505260.86849   -385777.65246  21870137.929    21870144.593
  20854237.819     -295333.92649   -201518.47148  20854237.092    20854243.838
  20732219.416      720295.73649    553566.22847  20732219.083    20732225.239
  20969144.984     -825709.11049   -636798.50648  20969144.274    20969151.358
  21512057.985    -1324169.12249  -1019845.43247  21512057.413    21512064.001
  22993606.219      183782.62949    141464.20046  22993605.908    22993612.511
  23263663.973     -546169.89549   -422205.71446  23263663.490    23263670.093
 03  3 27 22 17  0.0000000  0  9G30G15G26G17G 6G23G18G29G16
  24651948.677     1854756.85749   1417964.25945  24651949.030    24651966.708
  22018192.006    -1159251.47549   -892463.20346  22018191.184    22018198.749
  21865903.945     -527511.19249   -403115.52346  21865903.850    21865910.519
  20851532.086     -309552.77049   -212598.06648  20851531.345    20851538.091
  20740908.523      765957.15449    589146.52947  20740908.198    20740914.344
  20961185.447     -867536.45449   -669391.18948  20961184.754    20961191.833
  21498619.438    -1394788.83549  -1074873.70147  21498618.876    21498625.422
  22996683.643      199954.53949    154065.68646  22996683.337    22996689.992
  23258739.862     -572046.32949   -442369.14445  23258739.420    23258745.967
 03  3 27 22 17 30.0000000  0  9G30G15G26G17G 6G23G18G29G16
  24671593.458     1957988.21649   1498403.80345  24671593.710    24671611.547
  22006806.104    -1219084.58149   -939086.32747  22006805.296    22006812.815
  21861787.095     -549145.00449   -419972.99346  21861787.040    21861793.696
  20848860.574     -323591.63349   -223537.42748  20848859.825    20848866.544
  20749684.228      812073.73149    625081.51447  20749683.903    20749690.071
  20953311.713     -908912.98649   -701632.58448  20953311.015    20953318.083
  21485254.156    -1465023.74349  -1129602.11747  21485253.579    21485260.060
  22999863.878      216666.82449    167088.26346  22999863.576    22999870.218
  23253919.798     -597376.17649   -462106.67546  23253919.267    23253925.837
 03  3 27 22 18  0.0000000  0  8G15G26G17G 6G23G18G29G16
  21995449.782    -1278762.56349   -985588.58147  21995448.938    21995456.385
  21857789.754     -570151.19849   -436341.40146  21857789.707    21857796.349
  20846225.086     -337441.10249   -234329.20748  20846224.369    20846231.064
  20758548.305      858654.51249    661378.21647  20758547.976    20758554.153
  20945525.643     -949828.88349   -733515.04548  20945524.955    20945531.990
  21471964.133    -1534863.31249  -1184022.48447  21471963.569    21471969.948
  23003148.736      233928.81149    180539.17046  23003148.451    23003155.140
  23249205.553     -622149.80149   -481410.77646  23249205.041    23249211.585
 03  3 27 22 18 30.0000000  0  8G15G26G17G 6G23G18G29G16
  21984122.110    -1338289.92249  -1031973.47647  21984121.249    21984128.682
  21853911.150     -590533.29349   -452223.50346  21853911.112    21853917.722
  20843624.740     -351106.20049   -244977.31748  20843624.009    20843630.672
  20767499.650      905694.09349    698032.41947  20767499.329    20767505.509
  20937826.344     -990289.01349   -765042.36248  20937825.665    20937832.656
  21458748.630    -1604311.27449  -1238137.69947  21458748.068    21458754.341
  23006537.218      251735.37149    194414.41046  23006536.946    23006543.609
  23244596.326     -646371.49849   -500284.80546  23244595.812    23244602.406
 03  3 27 22 19  0.0000000  0  8G15G26G17G 6G23G18G29G16
  21972821.083    -1397677.11549  -1078249.13847  21972820.233    21972827.657
  21850149.637     -610300.52849   -467626.49147  21850149.566    21850156.153
  20841057.533     -364597.19249   -255489.76648  20841056.777    20841063.413
  20776536.251      953181.53149    735035.60447  20776535.933    20776542.115
  20930211.787    -1030303.77249   -796222.63948  20930211.106    20930218.040
  21445605.803    -1673377.39649  -1291955.38547  21445605.227    21445611.418
  23010027.316      270075.59149    208705.49646  23010027.000    23010033.644
  23240090.159     -670051.35949   -518736.63646  23240089.651    23240096.282
 03  3 27 22 19 30.0000000  0  8G15G26G17G 6G23G18G29G16
  21961547.254    -1456921.20749  -1124413.29847  21961546.378    21961553.812
  21846505.845     -629448.57749   -482546.98947  21846505.799    21846512.347
  20838523.917     -377911.48449   -265864.52148  20838523.181    20838529.801
  20785658.498     1001119.10049    772389.54547  20785658.168    20785664.353
  20922682.615    -1069870.08649   -827053.47248  20922681.929    20922688.814
  21432536.365    -1742057.66749  -1345472.40347  21432535.794    21432541.898
  23013619.383      288951.97249    223414.36146  23013619.083    23013625.640
  23235687.681     -693186.22649   -536763.78546  23235687.178    23235693.865
 03  3 27 22 20  0.0000000  0  8G15G26G17G 6G23G18G29G16
  21950301.014    -1516020.19549  -1170464.40347  21950300.173    21950307.638
  21842980.542     -647974.26649   -496982.55246  21842980.449    21842987.003
  20836024.285     -391047.13149   -276100.07748  20836023.551    20836030.157
  20794866.654     1049508.15049    810095.29147  20794866.324    20794872.525
  20915239.085    -1108986.20849   -857533.51248  20915238.402    20915245.222
  21419540.940    -1810349.01249  -1398686.36147  21419540.371    21419546.398
  23017313.785      308366.13049    238542.27646  23017313.545    23017320.067
  23231389.376     -715773.70349   -554364.40446  23231388.874    23231395.647
 03  3 27 22 20 30.0000000  0  8G15G26G17G 6G23G18G29G16
  21939082.481    -1574973.75649  -1216402.17647  21939081.650    21939089.120
  21839573.927     -665876.08649   -510931.97146  21839573.828    21839580.358
  20833558.707     -404003.68449   -286196.08348  20833557.988    20833564.564
  20804160.677     1098348.40749    848152.62647  20804160.349    20804166.558
  20907881.291    -1147651.68649   -887662.40248  20907880.595    20907887.371
  21406619.718    -1878250.47149  -1451596.51747  21406619.136    21406625.125
  23021110.627      328318.05749    254089.24246  23021110.347    23021116.849
  23227195.319     -737813.37349   -571538.15546  23227194.857    23227201.652
 03  3 27 22 21  0.0000000  0  8G15G26G17G 6G23G18G29G16
  21927891.835    -1633780.77449  -1262225.76947  21927890.987    21927898.503
  21836286.475     -683151.83149   -524393.53746  21836286.354    21836292.914
  20831127.281     -416781.02249   -296152.43948  20831126.561    20831133.157
  20813540.608     1147640.11949    886561.73947  20813540.266    20813546.471
  20900609.461    -1185865.48949   -917439.34048  20900608.750    20900615.500
  21393773.049    -1945760.05549  -1504201.31147  21393772.460    21393778.445
  23025009.734      348808.01649    270055.44446  23025009.488    23025015.950
  23223105.796     -759304.03349   -588284.12346  23223105.278    23223112.160
 03  3 27 22 21 30.0000000  0  8G15G26G17G 6G23G18G29G16
  21916729.070    -1692441.11849  -1307935.06747  21916728.255    21916735.802
  21833118.347     -699800.13149   -537366.18146  21833118.257    21833124.805
  20828730.151     -429377.92949   -305968.20148  20828729.441    20828736.043
  20823006.370     1197382.84649    925322.28247  20823006.043    20823012.233
  20893423.564    -1223627.46449   -946864.20248  20893422.844    20893429.594
  21381001.134    -2012876.51749  -1556499.77547  21381000.571    21381006.565
  23029011.233      369835.93849    286440.83346  23029011.017    23029017.472
  23219120.798     -780245.34549   -604602.00646  23219120.257    23219127.197
 03  3 27 22 22  0.0000000  0  8G15G26G17G 6G23G18G29G16
  21905594.357    -1750954.18949  -1353529.61847  21905593.523    21905601.084
  21830069.953     -715819.32149   -549848.62446  21830069.837    21830076.382
  20826367.295     -441794.85149   -315643.72648  20826366.596    20826373.232
  20832557.882     1247576.27849    964434.01947  20832557.551    20832563.723
  20886323.711    -1260937.23949   -975936.70648  20886323.000    20886329.750
  21368304.295    -2079598.48649  -1608490.85347  21368303.721    21368309.760
  23033115.081      391401.62449    303245.25746  23033114.826    23033121.324
  23215240.556     -800636.49849   -620491.22246  23215240.024    23215246.880
 03  3 27 22 22 30.0000000  0  8G15G26G17G 6G23G18G29G16
  21894487.327    -1809321.51649  -1399010.59447  21894486.512    21894494.112
  21827141.165     -731209.93849   -561841.26646  21827141.065    21827147.636
  20824038.373     -454033.18949   -325180.08048  20824037.679    20824044.334
  20842194.717     1298218.10349   1003895.17347  20842194.389    20842200.581
  20879309.540    -1297796.54649  -1004658.19248  20879308.835    20879315.626
  21355682.354    -2145926.56349  -1660174.98847  21355681.799    21355687.871
  23037320.792      413502.98349    320467.08946  23037320.555    23037327.012
  23211464.676     -820479.13649   -635952.99946  23211464.128    23211470.986
 03  3 27 22 23  0.0000000  0  8G15G26G17G 6G23G18G29G16
  21883408.770    -1867539.10549  -1444374.89847  21883407.992    21883415.594
  21824332.891     -745967.12549   -573340.33546  21824332.859    21824339.408
  20821744.210     -466089.12649   -334574.31148  20821743.507    20821750.209
  20851917.467     1349311.55149   1043708.23547  20851917.148    20851923.331
  20872381.818    -1334201.53849  -1033025.67148  20872381.141    20872387.958
  21343136.300    -2211856.15249  -1711548.61547  21343135.745    21343141.853
  23041629.051      436143.33349    338108.93146  23041628.863    23041635.387
  23207793.887     -839769.17049   -650984.17546  23207793.309    23207800.230
 03  3 27 22 23 30.0000000  0  8G15G26G17G 6G23G18G29G16
  21872358.275    -1925609.51349  -1489624.50747  21872357.522    21872365.123
  21821644.955     -760091.87049   -584346.59146  21821644.969    21821651.492
  20819484.314     -477964.88049   -343828.13848  20819483.611    20819490.352
  20861725.608     1400853.65349   1083870.89647  20861725.288    20861731.478
  20865540.087    -1370154.68549  -1061041.06248  20865539.418    20865546.258
  21330665.742    -2277388.85649  -1762612.98447  21330665.208    21330671.349
  23046039.466      459319.97949    356168.65146  23046039.229    23046045.752
  23204227.878     -858508.59649   -665586.31946  23204227.378    23204234.235
 03  3 27 22 24  0.0000000  0  8G15G26G17G 6G23G18G29G16
  21861335.982    -1983532.04949  -1534758.89747  21861335.193    21861342.805
  21819077.642     -773582.90049   -594859.03746  21819077.657    21819084.189
  20817258.740     -489660.27749   -352941.42148  20817258.052    20817264.782
  20871619.062     1452844.03949   1124382.87147  20871618.749    20871624.947
  20858784.481    -1405655.50249  -1088703.98748  20858783.815    20858790.672
  21318271.020    -2342523.17949  -1813366.92447  21318270.489    21318276.653
  23050551.758      483032.45649    374645.90646  23050551.565    23050558.077
  23200766.767     -876697.08249   -679759.14146  23200766.234    23200773.078
 03  3 27 22 24 30.0000000  0  8G15G26G17G 6G23G18G29G16
  21850341.884    -2041306.46649  -1579777.87047  21850341.104    21850348.639
  21816631.138     -786439.04749   -604876.77846  21816631.170    21816637.705
  20815067.602     -501174.83549   -361913.79948  20815066.899    20815073.638
  20881597.720     1505282.08949   1165243.67347  20881597.421    20881603.596
  20852114.910    -1440704.01149  -1116014.46948  20852114.252    20852121.125
  21305952.239    -2407258.30249  -1863809.80647  21305951.727    21305957.896
  23055166.063      507280.63549    393540.58346  23055165.810    23055172.345
  23197410.433     -894334.44949   -693502.55146  23197409.937    23197416.811
 03  3 27 22 25  0.0000000  0  8G15G26G17G 6G23G18G29G16
  21839375.990    -2098932.55349  -1624681.25647  21839375.215    21839382.672
  21814305.703     -798659.24749   -614398.98046  21814305.720    21814312.262
  20812910.743     -512508.97449   -370745.58748  20812910.072    20812916.809
  20891661.386     1558166.96249   1206452.63947  20891661.084    20891667.252
  20845531.442    -1475300.30849  -1142972.57548  20845530.789    20845537.660
  21293709.678    -2471593.05849  -1913940.70947  21293709.152    21293715.337
  23059882.083      532063.62549    412851.99946  23059881.836    23059888.345
  23194159.120     -911420.44749   -706816.30346  23194158.648    23194165.473
 03  3 27 22 25 30.0000000  0  9G 2G15G26G17G 6G23G18G29G16
  25222231.195    -1951936.00149  -1508646.53045  25222230.683    25222240.497
  21828437.064    -2156417.02649  -1669474.30247  21828436.308    21828443.710
  21812100.182     -810249.31349   -623430.17246  21812100.217    21812106.731
  20810787.037     -523668.81949   -379441.56648  20810786.383    20810793.120
  20901808.665     1611491.08449   1248003.88647  20901808.369    20901814.547
  20839032.667    -1509451.36249  -1169583.74248  20839032.018    20839038.889
  21281542.153    -2535533.47549  -1963764.34247  21281541.616    21281547.819
  23064698.499      557374.01449    432574.36646  23064698.262    23064704.771
  23191011.363     -927962.07649   -719705.88546  23191010.877    23191017.669
 03  3 27 22 26  0.0000000  0  9G 2G15G26G17G 6G23G18G29G16
  25213043.470    -2000217.91549  -1546268.76245  25213042.814    25213052.670
  21817526.775    -2213750.89149  -1714149.98947  21817525.991    21817533.346
  21810016.416     -821199.49449   -631962.74747  21810016.440    21810022.948
  20808698.090     -534646.11249   -387995.28848  20808697.448    20808704.185
  20912041.104     1665262.68249   1289903.80247  20912040.815    20912047.010
  20832620.308    -1543148.34849  -1195841.08748  20832619.668    20832626.519
  21269451.449    -2599070.30349  -2013273.48747  21269450.916    21269457.105
  23069616.856      583220.18149    452714.23546  23069616.647    23069623.170
  23187968.874     -943950.28649   -732164.22146  23187968.413    23187975.201
 03  3 27 22 26 30.0000000  0  9G 2G15G26G17G 6G23G18G29G16
  25203930.551    -2048106.09249  -1583584.19245  25203929.833    25203939.659
  21806645.323    -2270933.26349  -1758707.62647  21806644.534    21806651.866
  21808054.738     -831508.11249   -639995.40547  21808054.748    21808061.303
  20806644.098     -545439.81349   -396405.95548  20806643.460    20806650.225
  20922358.660     1719481.63649   1332152.30647  20922358.373    20922364.580
  20826294.426    -1576390.94049  -1221744.36048  20826293.797    20826300.653
  21257437.849    -2662201.82449  -2062466.81047  21257437.332    21257443.497
  23074637.224      609602.09049    473271.55046  23074636.961    23074643.505
  23185031.903     -959384.28849   -744190.71246  23185031.426    23185038.229
 03  3 27 22 27  0.0000000  0  9G 2G15G26G17G 6G23G18G29G16
  25194892.752    -2095600.40649  -1620592.73945  25194891.869    25194901.611
  21795792.478    -2327964.81749  -1803147.75047  21795791.727    21795799.032
  21806215.182     -841175.11749   -647528.10747  21806215.181    21806221.733
  20804624.938     -556050.69049   -404674.16048  20804624.318    20804631.047
  20932761.077     1774146.41749   1374748.21247  20932760.781    20932766.996
  20820054.824    -1609179.99649  -1247294.23348  20820054.197    20820061.070
  21245501.436    -2724927.78949  -2111344.12047  21245500.926    21245507.062
  23079759.239      636518.43149    494245.31846  23079759.025    23079765.523
  23182200.222     -974264.96949   -755786.06146  23182199.767    23182206.537
 03  3 27 22 27 30.0000000  0  9G 2G15G26G17G 6G23G18G29G16
  25185929.842    -2142700.20949  -1657293.82745  25185929.124    25185938.817
  21784968.327    -2384846.08949  -1847470.77147  21784967.571    21784974.864
  21804497.761     -850200.14449   -654560.56347  21804497.780    21804504.301
  20802640.432     -566479.51949   -412800.51248  20802639.782    20802646.477
  20943248.006     1829255.54349   1417690.36447  20943247.731    20943253.968
  20813901.382    -1641516.22149  -1272491.24848  20813900.757    20813907.656
  21233642.224    -2787247.89049  -2159905.16547  21233641.736    21233647.849
  23084982.711      663967.86749    515634.47946  23084982.510    23084988.996
  23179473.734     -988592.58149   -766950.43646  23179473.295    23179480.118
 03  3 27 22 28  0.0000000  0  9G 2G15G26G17G 6G23G18G29G16
  25177042.179    -2189404.84549  -1693687.00145  25177041.437    25177051.304
  21774172.665    -2441577.41249  -1891676.95247  21774171.934    21774179.214
  21802902.580     -858582.57149   -661092.29946  21802902.605    21802909.166
  20800690.506     -576726.43749   -420785.11348  20800689.872    20800696.557
  20953819.317     1884807.91849   1460977.90147  20953819.033    20953825.321
  20807834.004    -1673400.14349  -1297335.81848  20807833.387    20807840.307
  21221860.369    -2849161.79649  -2208149.70647  21221859.892    21221865.967
  23090307.422      691949.24449    537438.15846  23090307.233    23090313.702
  23176852.385    -1002367.81149   -777684.37946  23176851.949    23176858.866
 03  3 27 22 28 30.0000000  0  9G 2G15G26G17G 6G23G18G29G16
  25168229.910    -2235713.36649  -1729771.54145  25168229.128    25168239.082
  21763405.607    -2498158.53849  -1935766.08647  21763404.868    21763412.173
  21801429.731     -866322.04549   -667123.01946  21801429.794    21801436.338
  20798775.210     -586791.52949   -428628.03048  20798774.578    20798781.260
  20964474.768     1940802.63749   1504610.12647  20964474.496    20964480.806
  20801852.639    -1704832.19349  -1321828.27748  20801852.038    20801858.965
  21210155.901    -2910669.12349  -2256077.42447  21210155.415    21210161.434
  23095733.099      720461.59949    559655.56646  23095732.957    23095739.437
  23174336.054    -1015591.02349   -787988.19046  23174335.561    23174342.564
 03  3 27 22 29  0.0000000  0  9G 2G15G26G17G 6G23G18G29G16
  25159493.222    -2281624.90849  -1765546.71445  25159492.586    25159502.395
  21752667.079    -2554589.28449  -1979738.05147  21752666.392    21752673.741
  21800079.516     -873417.56749   -672651.97046  21800079.549    21800086.087
  20796894.576     -596674.50249   -436329.04148  20796893.910    20796900.608
  20975214.208     1997238.75649   1548586.28547  20975213.942    20975220.295
  20795957.281    -1735812.46549  -1345968.70948  20795956.669    20795963.565
  21198528.975    -2971768.97349  -2303687.63447  21198528.484    21198534.497
  23101259.789      749504.39249    582286.33146  23101259.551    23101266.135
  23171924.794    -1028262.26549   -797861.89046  23171924.330    23171931.362
 03  3 27 22 29 30.0000000  0  9G 2G15G26G17G 6G23G18G29G16
  25150832.300    -2327138.18849  -1801011.56645  25150831.612    25150841.402
  21741957.300    -2610869.56949  -2023592.76847  21741956.567    21741963.889
  21798852.016     -879868.26449   -677678.45146  21798852.019    21798858.534
  20795048.565     -606375.49749   -443888.24348  20795047.898    20795054.608
  20986037.494     2054115.46449   1592905.76447  20986037.229    20986043.613
  20790147.839    -1766341.15949  -1369757.25648  20790147.241    20790154.101
  21186979.734    -3032460.55049  -2350979.70747  21186979.250    21186985.230
  23106887.219      779076.77049    605329.74646  23106887.005    23106893.576
  23169618.587    -1040381.43749   -807305.40046  23169618.127    23169625.156
 03  3 27 22 30  0.0000000  0  9G 2G15G26G17G 6G23G18G29G16
  25142247.429    -2372252.41849  -1836165.49545  25142246.735    25142256.351
  21731276.127    -2666999.27849  -2067330.16847  21731275.391    21731282.741
  21797747.254     -885673.80149   -682202.21746  21797747.214    21797753.715
  20793237.132     -615894.62849   -451305.74048  20793236.472    20793243.193
  20996944.359     2111431.48749   1637567.56147  20996944.108    20996950.519
  20784424.222    -1796418.82349  -1393194.35848  20784423.623    20784430.466
  21175508.305    -3092743.08049  -2397953.04547  21175507.821    21175513.788
  23112615.153      809177.64049    628784.93946  23112614.950    23112621.621
  23167417.340    -1051949.07149   -816319.15046  23167416.901    23167423.931
 03  3 27 22 30 30.0000000  0  9G 2G15G26G17G 6G23G18G29G16
  25133738.588    -2416966.59649  -1871007.69345  25133737.896    25133747.427
  21720623.634    -2722978.09949  -2110949.98447  21720622.936    21720630.276
  21796765.455     -890833.29949   -686222.56746  21796765.403    21796771.897
  20791460.433     -625231.25849   -458581.02548  20791459.752    20791466.487
  21007934.781     2169186.36249   1682571.31747  21007934.540    21007940.963
  20778786.408    -1826045.70849  -1416280.19648  20778785.806    20778792.635
  21164114.817    -3152616.03549  -2444607.23347  21164114.339    21164120.279
  23118443.733      839806.49749    652651.58946  23118443.465    23118450.153
  23165321.067    -1062964.90249   -824902.91946  23165320.623    23165327.683
 03  3 27 22 31  0.0000000  0  9G 2G15G26G17G 6G23G18G29G16
  25125306.050    -2461279.41549  -1905537.09945  25125305.363    25125315.158
  21709999.997    -2778805.66449  -2154451.94347  21709999.281    21710006.642
  21795906.780     -895345.64249   -689738.64646  21795906.728    21795913.180
  20789718.502     -634385.28049   -465714.01648  20789717.818    20789724.558
  21019008.570     2227379.48449   1727916.56747  21019008.323    21019014.776
  20773234.377    -1855221.63449  -1439014.64248  20773233.780    20773240.591
  21152799.563    -3212077.93149  -2490941.11247  21152799.092    21152805.001
  23124372.616      870962.79649    676929.23446  23124372.320    23124379.018
  23163329.840    -1073428.86449   -833056.66246  23163329.410    23163336.420
 03  3 27 22 31 30.0000000  0  9G 2G15G26G17G 6G23G18G29G16
  25116950.122    -2505189.98249  -1939753.09545  25116949.537    25116959.072
  21699405.092    -2834481.95549  -2197836.02947  21699404.385    21699411.759
  21795171.237     -899210.48549   -692750.18146  21795171.227    21795177.695
  20788011.190     -643357.15249   -472705.07748  20788010.500    20788017.252
  21030165.567     2286009.59749   1773602.34747  21030165.329    21030171.780
  20767768.101    -1883947.07749  -1461398.06448  20767767.504    20767774.293
  21141562.563    -3271128.62849  -2536954.58347  21141562.081    21141567.990
  23130401.624      902645.47249    701617.01746  23130401.366    23130408.087
  23161443.510    -1083341.59649   -840780.86846  23161443.087    23161450.120
 03  3 27 22 32  0.0000000  0  9G 2G15G26G17G 6G23G18G29G16
  25108670.941    -2548697.36249  -1973654.93445  25108670.389    25108679.775
  21688839.151    -2890006.46549  -2241101.84147  21688838.430    21688845.783
  21794559.125     -902427.17649   -695256.67546  21794559.081    21794565.565
  20786338.667     -652146.38949   -479553.82448  20786337.988    20786344.722
  21041405.500     2345075.75349   1819627.88547  21041405.258    21041411.706
  20762387.481    -1912222.25149  -1483430.62748  20762386.889    20762393.659
  21130403.934    -3329767.26149  -2582646.96447  21130403.466    21130409.363
  23136530.604      934853.54649    726714.21146  23136530.393    23136537.131
  23159662.136    -1092703.04549   -848075.51946  23159661.680    23159668.697
 03  3 27 22 32 30.0000000  0  9G 2G15G26G17G 6G23G18G29G16
  25100468.607    -2591800.78949  -2007242.00245  25100468.077    25100477.381
  21678302.060    -2945379.17149  -2284249.36347  21678301.324    21678308.681
  21794070.435     -904995.28549   -697257.77946  21794070.379    21794076.870
  20784700.894     -660753.08949   -486260.33448  20784700.201    20784706.920
  21052728.256     2404576.89649   1865992.36947  21052728.010    21052734.445
  20757092.425    -1940047.75649  -1505112.80248  20757091.844    20757098.594
  21119323.880    -3387993.26649  -2628017.81947  21119323.417    21119329.273
  23142759.389      967586.12049    752220.09646  23142759.191    23142765.915
  23157985.459    -1101513.91149   -854941.12746  23157985.021    23157992.070
 03  3 27 22 33  0.0000000  0  9G 2G15G26G17G 6G23G18G29G16
  25092343.430    -2634498.91149  -2040513.23545  25092342.843    25092352.172
  21667793.913    -3000599.59549  -2327278.22547  21667793.189    21667800.576
  21793705.351     -906913.84949   -698752.74046  21793705.282    21793711.770
  20783098.003     -669176.34449   -492823.90448  20783097.321    20783104.042
  21064133.637     2464512.48649   1912695.39347  21064133.394    21064139.841
  20751882.965    -1967423.62649  -1526444.61148  20751882.381    20751889.121
  21108322.478    -3445805.83649  -2673066.51647  21108322.013    21108327.859
  23149087.874     1000842.51449    778134.14646  23149087.630    23149094.436
  23156413.661    -1109773.81949   -861377.45946  23156413.258    23156420.245
 03  3 27 22 33 30.0000000  0  9G 2G15G26G17G 6G23G18G29G16
  25084295.552    -2676790.58749  -2073467.76845  25084294.904    25084304.392
  21657314.781    -3055667.53349  -2370188.27647  21657314.064    21657321.447
  21793463.970     -908182.19149   -699741.03446  21793463.919    21793470.386
  20781530.033     -677415.99549   -499244.40648  20781529.347    20781536.080
  21075621.555     2524881.75249   1959736.35147  21075621.311    21075627.781
  20746759.080    -1994349.80949  -1547426.01848  20746758.488    20746765.217
  21097399.896    -3503204.12149  -2717792.39947  21097399.444    21097405.273
  23155515.828     1034622.05149    804455.83646  23155515.650    23155522.479
  23154946.613    -1117483.14149   -867384.72246  23154946.174    23154953.219
 03  3 27 22 34  0.0000000  0  9G 2G15G26G17G 6G23G18G29G16
  25076325.168    -2718675.26349  -2106105.15545  25076324.502    25076334.042
  21646864.757    -3110582.78449  -2412979.34047  21646864.018    21646871.410
  21793346.393     -908799.99849   -700222.43947  21793346.370    21793352.807
  20779997.005     -685472.13949   -505521.91648  20779996.338    20780003.030
  21087191.790     2585683.51949   2007114.32047  21087191.551    21087198.018
  20741720.629    -2020827.01249  -1568057.57248  20741720.026    20741726.720
  21086556.315    -3560187.27549  -2762194.80047  21086555.861    21086561.694
  23162043.197     1068923.52849    831184.24346  23162043.031    23162049.856
  23153584.370    -1124641.96649   -872963.03046  23153583.917    23153590.982
 03  3 27 22 34 30.0000000  0  9G 2G15G26G17G 6G23G18G29G16
  25068432.338    -2760151.90749  -2138424.56445  25068431.624    25068441.304
  21636443.877    -3165344.82049  -2455651.01647  21636443.152    21636450.500
  21793352.728     -908766.82049   -700196.57646  21793352.706    21793359.099
  20778498.954     -693344.61149   -511656.30348  20778498.285    20778504.954
  21098844.110     2646916.73449   2054828.47847  21098843.874    21098850.332
  20736767.543    -2046855.53849  -1588339.50348  20736766.945    20736773.611
  21075791.818    -3616754.92549  -2806273.43047  21075791.363    21075797.181
  23168669.778     1103746.08649    858318.68146  23168669.574    23168676.420
  23152326.782    -1131250.87749   -878112.83446  23152326.318    23152333.374
 03  3 27 22 35  0.0000000  0  9G 2G15G26G17G 6G23G18G29G16
  25060617.446    -2801219.54549  -2170425.29645  25060616.826    25060626.515
  21626052.215    -3219953.35249  -2498203.08247  21626051.456    21626058.783
  21793483.054     -908081.88749   -699662.85246  21793483.036    21793489.394
  20777035.826     -701033.24749   -517647.44248  20777035.168    20777041.832
  21110578.404     2708580.68249   2102878.27347  21110578.171    21110584.629
  20731899.778    -2072435.63749  -1608272.01648  20731899.195    20731905.842
  21065106.522    -3672906.24549  -2850027.65247  21065106.080    21065111.878
  23175395.365     1139088.99749    885858.59846  23175395.118    23175402.000
  23151173.784    -1137309.93049   -882834.17546  23151173.307    23151180.384
 03  3 27 22 35 30.0000000  0  9G 2G15G26G17G 6G23G18G29G16
  25052880.415    -2841877.48349  -2202106.76845  25052879.832    25052889.581
  21615689.768    -3274408.42349  -2540635.56547  21615689.010    21615696.321
  21793737.431     -906745.02649   -698621.13546  21793737.449    21793743.768
  20775607.725     -708537.92749   -523495.24048  20775607.076    20775613.730
  21122394.449     2770674.15749   2151262.75747  21122394.211    21122400.678
  20727117.282    -2097567.71949  -1627855.42248  20727116.696    20727123.330
  21054500.565    -3728640.85549  -2893457.17147  21054500.113    21054505.903
  23182219.616     1174950.93849    913802.93546  23182219.413    23182226.288
  23150125.300    -1142819.77049   -887127.57746  23150124.832    23150131.947
 03  3 27 22 36  0.0000000  0  9G 2G15G26G17G 6G23G18G29G16
  25045221.434    -2882125.63149  -2233468.93045  25045220.883    25045230.620
  21605356.375    -3328710.55549  -2582948.88947  21605355.624    21605362.889
  21794115.781     -904756.62049   -697071.72346  21794115.837    21794122.144
  20774214.613     -715858.92149   -529199.90448  20774213.951    20774220.627
  21134291.872     2833195.28849   2199980.48447  21134291.634    21134298.110
  20722419.791    -2122253.09849  -1647090.75148  20722419.218    20722425.838
  21043973.854    -3783958.76349  -2936561.98647  21043973.410    21043979.178
  23189142.418     1211330.26649    942150.44046  23189142.221    23189149.070
  23149181.111    -1147781.66749   -890994.01846  23149180.665    23149187.765
 03  3 27 22 36 30.0000000  0  9G 2G15G26G17G 6G23G18G29G16
  25037641.127    -2921960.37949  -2264508.97345  25037640.632    25037650.254
  21595052.646    -3382856.74149  -2625140.68047  21595051.927    21595059.184
  21794618.694     -902113.64949   -695012.25446  21794618.740    21794625.075
  20772856.948     -722993.45649   -534759.27548  20772856.291    20772862.967
  21146270.953     2896145.68349   2249032.70147  21146270.731    21146277.202
  20717807.716    -2146489.57349  -1665976.28648  20717807.151    20717813.748
  21033527.086    -3838856.80249  -2979339.63147  21033526.643    21033532.384
  23196163.870     1248228.41149    970902.21746  23196163.750    23196170.616
  23148341.624    -1152193.17949   -894431.57246  23148341.197    23148348.292
 03  3 27 22 37  0.0000000  0  9G 2G15G26G17G 6G23G18G29G16
  25030139.172    -2961382.92149  -2295227.80245  25030138.676    25030148.334
  21584778.282    -3436848.56549  -2667212.19447  21584777.600    21584784.824
  21795245.855     -898817.85849   -692444.10246  21795245.915    21795252.208
  20771534.348     -729943.67549   -540175.02348  20771533.707    20771540.397
  21158331.142     2959522.25449   2298417.01247  21158330.932    21158337.404
  20713280.645    -2170279.52349  -1684513.87748  20713280.075    20713286.651
  21023159.900    -3893336.48649  -3021791.28347  21023159.460    21023165.174
  23203283.613     1285642.53049   1000056.06846  23203283.431    23203290.260
  23147606.414    -1156056.87349   -897442.26246  23147605.966    23147613.090
 03  3 27 22 37 30.0000000  0  9G 2G15G26G17G 6G23G18G29G16
  25022716.004    -3000392.02249  -2325624.46445  25022715.406    25022725.133
  21574533.447    -3490685.41049  -2709162.94547  21574532.782    21574540.000
  21795997.383     -894868.50649   -689366.67646  21795997.435    21796003.741
  20770246.906     -736709.18049   -545446.83948  20770246.278    20770252.968
  21170472.321     3023324.28049   2348132.83747  21170472.107    21170478.573
  20708838.507    -2193623.12349  -1702703.66348  20708837.920    20708844.500
  21012872.579    -3947396.65949  -3063916.04647  21012872.112    21012877.822
  23210501.288     1323571.70649   1029611.25946  23210501.104    23210507.988
  23146975.430    -1159372.88049   -900026.17046  23146974.943    23146982.031
 03  3 27 22 38  0.0000000  0  9G 2G15G26G17G 6G23G18G29G16
  25015371.453    -3038987.55249  -2355698.87045  25015370.900    25015380.690
  21564318.029    -3544367.56449  -2750993.15747  21564317.394    21564324.592
  21796873.298     -890265.83449   -685780.17046  21796873.329    21796879.630
  20768994.760     -743289.47849   -550574.33548  20768994.115    20769000.802
  21182694.133     3087550.25649   2398179.02147  21182693.936    21182700.406
  20704481.082    -2216521.38649  -1720546.43348  20704480.506    20704487.066
  21002665.047    -4001037.41949  -3105713.99347  21002664.588    21002670.282
  23217816.829     1362014.43549   1059566.61246  23217816.620    23217823.442
  23146448.437    -1162142.13249   -902184.05646  23146447.987    23146455.052
 03  3 27 22 38 30.0000000  0  9G 2G15G26G17G 6G23G18G29G16
  25008105.861    -3077167.90449  -2385449.76045  25008105.289    25008115.165
  21554132.268    -3597893.98849  -2792702.01547  21554131.625    21554138.848
  21797873.638     -885008.85449   -681683.82046  21797873.696    21797879.988
  20767777.885     -749683.95549   -555557.04048  20767777.267    20767783.963
  21194996.582     3152199.81049   2448555.25647  21194996.379    21195002.850
  20700208.493    -2238973.84549  -1738041.82448  20700207.914    20700214.456
  20992537.553    -4054257.44249  -3147184.09447  20992537.099    20992542.793
  23225229.853     1400970.29049   1089921.80746  23225229.638    23225236.441
  23146025.613    -1164364.17149   -903915.52746  23146025.160    23146032.258
 03  3 27 22 39  0.0000000  0  9G 2G15G26G17G 6G23G18G29G16
  25000919.527    -3114932.20949  -2414876.47545  25000918.795    25000928.760
  21543976.211    -3651264.28549  -2834289.22347  21543975.596    21543982.811
  21798998.599     -879097.11649   -677077.27346  21798998.677    21799004.983
  20766596.541     -755891.97449   -560394.45248  20766595.925    20766602.615
  21207379.456     3217271.94649   2499260.77847  21207379.247    21207385.751
  20696020.648    -2260981.02549  -1755190.24548  20696020.074    20696026.603
  20982490.296    -4107056.06349  -3188325.83147  20982489.845    20982495.508
  23232740.378     1440438.45249   1120676.20546  23232740.178    23232747.021
  23145706.814    -1166039.57049   -905221.05946  23145706.380    23145713.542
 03  3 27 22 39 30.0000000  0  9G 2G15G26G17G 6G23G18G29G16
  24993812.446    -3152280.04349  -2443978.63645  24993811.784    24993821.736
  21533849.867    -3704478.47149  -2875754.78847  21533849.236    21533856.444
  21800248.106     -872531.04749   -671960.85346  21800248.152    21800254.485
  20765450.465     -761914.79849   -565087.55548  20765449.838    20765456.493
  21219842.406     3282765.08349   2550294.34847  21219842.179    21219848.697
  20691917.400    -2282543.79849  -1771992.37848  20691916.814    20691923.343
  20972523.208    -4159433.26849  -3229139.19347  20972522.765    20972528.395
  23240348.076     1480417.14049   1151828.41946  23240347.932    23240354.717
  23145491.881    -1167169.34249   -906101.42146  23145491.400    23145498.528
 03  3 27 22 40  0.0000000  0  9G 2G15G26G17G 6G23G18G29G16
  24986784.767    -3189210.99949  -2472755.96545  24986783.979    24986793.986
  21523753.243    -3757536.58449  -2917098.73247  21523752.586    21523759.781
  21801622.035     -865310.64649   -666334.54646  21801622.131    21801628.435
  20764339.705     -767751.71849   -569635.79748  20764339.077    20764345.761
  21232385.208     3348677.80549   2601654.86847  21232384.986    21232391.512
  20687898.549    -2303662.88849  -1788448.78248  20687897.966    20687904.493
  20962636.406    -4211388.59949  -3269623.82247  20962635.949    20962641.596
  23248052.758     1520905.13449   1183377.47446  23248052.568    23248059.306
  23145380.581    -1167754.39949   -906557.32246  23145380.087    23145387.185
 03  3 27 22 40 30.0000000  0  9G 2G15G26G17G 6G23G18G29G16
  24979836.510    -3225723.98349  -2501207.61545  24979835.769    24979845.850
  21513686.414    -3810438.05149  -2958320.61647  21513685.765    21513692.907
  21803120.659     -857435.42349   -660197.99946  21803120.743    21803127.059
  20763264.518     -773402.06249   -574038.65948  20763263.901    20763270.555
  21245007.699     3415009.22049   2653341.64647  21245007.487    21245014.013
  20683964.065    -2324338.67649  -1804559.75348  20683963.500    20683970.008
  20952829.993    -4262921.38549  -3309779.19647  20952829.558    20952835.209
  23255854.137     1561901.45449   1215322.64146  23255853.917    23255860.681
  23145372.821    -1167794.96949   -906588.95646  23145372.372    23145379.425
 03  3 27 22 41  0.0000000  0  9G 2G15G26G17G 6G23G18G29G16
  24972968.044    -3261818.05549  -2529332.84745  24972967.314    24972977.308
  21503649.583    -3863182.00049  -2999419.76147  21503648.904    21503656.073
  21804743.942     -848905.02949   -653550.93846  21804743.970    21804750.315
  20762224.958     -778865.04249   -578295.52148  20762224.311    20762230.969
  21257709.686     3481758.51149   2705354.04147  21257709.484    21257716.021
  20680113.900    -2344571.31949  -1820325.42248  20680113.316    20680119.817
  20943104.157    -4314030.91249  -3349604.75947  20943103.721    20943109.363
  23263752.018     1603405.12049   1247663.13346  23263751.869    23263758.577
  23145468.732    -1167291.17249   -906196.40446  23145468.266    23145475.327
 03  3 27 22 41 30.0000000  0  9G 2G15G26G17G 6G23G18G29G16
  24966179.273    -3297492.70049  -2557131.22845  24966178.655    24966188.653
  21493642.689    -3915768.47549  -3040396.19447  21493642.011    21493649.159
  21806491.810     -839719.79949   -646393.60946  21806491.880    21806498.231
  20761220.913     -784141.09849   -582406.73048  20761220.326    20761226.959
  21270490.895     3548924.13949   2757690.85647  21270490.676    21270497.260
  20676347.897    -2364361.69749  -1835746.46348  20676347.313    20676353.825
  20933458.903    -4364716.92849  -3389100.31047  20933458.448    20933464.099
  23271746.255     1645414.72849   1280397.86946  23271746.076    23271752.798
  23145667.957    -1166244.23249   -905380.62446  23145667.518    23145674.560
 03  3 27 22 42  0.0000000  0  9G 2G15G26G17G 6G23G18G29G16
  24959470.568    -3332747.15449  -2584602.20945  24959470.028    24959479.926
  21483665.862    -3968197.13649  -3081249.65947  21483665.168    21483672.275
  21808364.370     -829879.49149   -638725.82046  21808364.433    21808370.758
  20760252.528     -789229.78249   -586371.93948  20760251.957    20760258.609
  21283351.136     3616505.06049   2810351.26847  21283350.943    21283357.546
  20672665.993    -2383710.27049  -1850823.25048  20672665.402    20672671.904
  20923894.323    -4414978.93049  -3428265.46747  20923893.880    20923899.531
  23279836.514     1687929.24949   1313526.05846  23279836.375    23279842.990
  23145970.462    -1164654.63549   -904141.99446  23145970.029    23145977.088
 03  3 27 22 42 30.0000000  0  9G 2G15G26G17G 6G23G18G29G16
  24952841.818    -3367580.73349  -2611745.22845  24952841.398    24952851.417
  21473719.154    -4020467.39049  -3121979.69647  21473718.434    21473725.572
  21810361.596     -819384.14149   -630547.62546  21810361.611    21810367.979
  20759319.970     -794130.43949   -590190.62948  20759319.382    20759326.051
  21296290.204     3684500.15249   2863334.41047  21296290.015    21296296.634
  20669068.007    -2402617.52649  -1865556.14848  20669067.432    20669073.924
  20914410.523    -4464816.45649  -3467099.85847  20914410.085    20914415.743
  23288022.523     1730947.20249   1347046.52546  23288022.368    23288029.069
  23146376.106    -1162522.95449   -902480.96846  23146375.677    23146382.760
 03  3 27 22 43  0.0000000  0  9G 2G15G26G17G 6G23G18G29G16
  24946293.499    -3401992.62749  -2638559.67045  24946293.021    24946303.013
  21463802.604    -4072578.87949  -3162586.01247  21463801.889    21463809.051
  21812483.470     -808233.56749   -621858.86246  21812483.512    21812489.849
  20758423.141     -798843.27049   -593862.96748  20758422.553    20758429.218
  21309307.856     3752908.21149   2916639.35047  21309307.663    21309314.295
  20665553.949    -2421084.01249  -1879945.59448  20665553.375    20665559.864
  20905007.619    -4514228.92949  -3505603.04547  20905007.175    20905012.827
  23296304.241     1774467.60449   1380958.52346  23296304.114    23296310.785
  23146884.820    -1159849.78449   -900397.99746  23146884.366    23146891.482
 03  3 27 22 43 30.0000000  0  9G 2G15G26G17G 6G23G18G29G16
  24939825.523    -3435982.26349  -2665045.06845  24939824.978    24939834.967
  21453916.301    -4124531.53049  -3203068.56147  21453915.593    21453922.744
  21814729.983     -796428.04449   -612659.75146  21814730.027    21814736.409
  20757562.153     -803367.95249   -597388.69048  20757561.549    20757568.213
  21322403.834     3821727.79649   2970264.95547  21322403.637    21322410.289
  20662123.555    -2439110.71149  -1893992.35048  20662122.990    20662129.477
  20895685.628    -4563216.15949  -3543774.86947  20895685.188    20895690.823
  23304681.269     1818488.92149   1415260.81746  23304681.065    23304687.787
  23147496.373    -1156636.15249   -897893.90246  23147495.912    23147503.021
 03  3 27 22 44  0.0000000  0  9G 2G15G26G17G 6G23G18G29G16
  24933437.913    -3469549.02649  -2691200.97145  24933437.271    24933447.508
  21444060.358    -4176324.81849  -3243426.93647  21444059.646    21444066.764
  21817101.189     -783967.51649   -602950.24946  21817101.205    21817107.557
  20756737.091     -807703.79749   -600767.27148  20756736.470    20756743.128
  21335577.886     3890957.81049   3024210.37047  21335577.677    21335584.346
  20658776.787    -2456698.02249  -1907696.72648  20658776.197    20658782.685
  20886444.659    -4611777.66749  -3581614.96547  20886444.216    20886449.826
  23313153.333     1863009.97849   1449952.52546  23313153.130    23313159.818
  23148210.694    -1152882.63049   -894969.09246  23148210.228    23148217.351
 03  3 27 22 44 30.0000000  0  9G 2G15G26G17G 6G23G18G29G16
  24927130.987    -3502692.23549  -2717026.82245  24927130.337    24927140.431
  21434234.822    -4227958.20349  -3283660.70947  21434234.138    21434241.226
  21819596.929     -770852.10249   -592730.44646  21819596.977    21819603.357
  20755947.918     -811850.76649   -603998.67648  20755947.317    20755953.998
  21348829.811     3960596.96949   3078474.60347  21348829.613    21348836.271
  20655513.545    -2473846.46349  -1921059.12648  20655512.966    20655519.435
  20877284.771    -4659913.12949  -3619123.07647  20877284.327    20877289.914
  23321720.233     1908029.38049   1485032.57646  23321720.039    23321726.623
  23149027.621    -1148589.92049   -891624.14346  23149027.162    23149034.316
 03  3 27 22 45  0.0000000  0  9G 2G15G26G17G 6G23G18G29G16
  24920904.677    -3535411.65049  -2742522.44645  24920903.987    24920914.104
  21424439.733    -4279431.69749  -3323769.88847  21424439.040    21424446.096
  21822217.193     -757082.41949   -582000.82446  21822217.263    21822223.666
  20755194.745     -815808.74949   -607082.81848  20755194.158    20755200.826
  21362159.281     4030643.53549   3133056.30047  21362159.075    21362165.769
  20652333.608    -2490557.12649  -1934080.39948  20652333.027    20652339.495
  20868205.969    -4707622.44049  -3656299.12147  20868205.532    20868211.083
  23330381.724     1953545.50249   1520499.66246  23330381.543    23330388.131
  23149946.848    -1143759.28849   -887860.04846  23149946.405    23149953.572
 03  3 27 22 45 30.0000000  0  9G 2G15G26G17G 6G23G18G29G16
  24914759.283    -3567706.36449  -2767687.14145  24914758.532    24914768.696
  21414675.225    -4330744.58049  -3363753.92547  21414674.519    21414681.524
  21824962.078     -742658.07849   -570761.08646  21824962.113    21824968.536
  20754477.798     -819576.46149   -610018.69748  20754477.184    20754483.833
  21375566.117     4101096.75149   3187954.87247  21375565.923    21375572.611
  20649236.872    -2506830.41049  -1946760.85848  20649236.291    20649242.756
  20859208.441    -4754904.64149  -3693142.35747  20859208.001    20859213.539
  23339137.521     1999557.21849   1556352.91846  23339137.332    23339143.945
  23150968.360    -1138391.15249   -883677.10946  23150967.978    23150975.104
 03  3 27 22 46  0.0000000  0  9G 2G15G26G17G 6G23G18G29G16
  24908694.874    -3599575.25349  -2792520.02245  24908694.170    24908704.322
  21404941.386    -4381896.11749  -3403612.23147  21404940.688    21404947.681
  21827831.518     -727579.01649   -559011.16846  21827831.587    21827837.981
  20753796.991     -823154.28049   -612806.60448  20753796.346    20753802.961
  21389050.148     4171955.70249   3243169.60947  21389049.939    21389056.643
  20646223.309    -2522666.64249  -1959100.75648  20646222.737    20646229.217
  20850292.288    -4801759.26149  -3729652.40948  20850291.843    20850297.369
  23347987.436     2046063.72449   1592591.73146  23347987.244    23347993.854
  23152092.114    -1132485.87549   -879075.63046  23152091.750    23152098.876
 03  3 27 22 46 30.0000000  0  9G 2G15G26G17G 6G23G18G29G16
  24902711.241    -3631018.77249  -2817021.43945  24902710.562    24902720.805
  21395238.194    -4432886.61049  -3443345.04947  21395237.495    21395244.505
  21830825.426     -711846.21149   -546751.85346  21830825.434    21830831.845
  20753152.270     -826542.37749   -615446.67548  20753151.642    20753158.233
  21402610.976     4243218.16349   3298698.76347  21402610.771    21402617.461
  20643292.697    -2538067.16749  -1971101.14048  20643292.116    20643298.586
  20841457.436    -4848186.65949  -3765829.56248  20841457.010    20841462.512
  23356931.016     2093062.68849   1629214.27946  23356930.833    23356937.407
  23153317.754    -1126045.27449   -874057.00746  23153317.401    23153324.466
 03  3 27 22 47  0.0000000  0  9G 2G15G26G17G 6G23G18G29G16
  24896808.962    -3662035.91349  -2841190.62045  24896808.268    24896818.369
  21385565.809    -4483715.27349  -3482951.76547  21385565.121    21385572.118
  21833943.713     -695459.42249   -533982.92246  21833943.755    21833950.115
  20752543.832     -829739.67849   -617938.07548  20752543.213    20752549.815
  21416248.484     4314883.51649   3354541.85647  21416248.280    21416254.992
  20640444.946    -2553032.17749  -1982762.16148  20640444.378    20640450.816
  20832703.975    -4894186.14049  -3801673.27748  20832703.549    20832709.058
  23365968.179     2140553.41249   1666220.01646  23365968.027    23365974.622
  23154645.155    -1119069.83449   -868621.62846  23154644.772    23154651.889
 03  3 27 22 47 30.0000000  0  9G 2G15G26G17G 6G23G18G29G16
  24890987.756    -3692626.38449  -2865027.33745  24890987.118    24890997.129
  21375924.166    -4534382.09249  -3522432.37147  21375923.486    21375930.498
  21837186.306     -678419.42449   -520705.00346  21837186.370    21837192.729
  20751971.762     -832745.98849   -620280.65048  20751971.159    20751977.760
  21429962.304     4386949.96949   3410697.48347  21429962.086    21429968.822
  20637679.803    -2567562.93649  -1994084.80648  20637679.222    20637685.653
  20824031.959    -4939757.73349  -3837183.57148  20824031.523    20824037.044
  23375098.604     2188533.81349   1703607.32246  23375098.456    23375105.008
  23156074.159    -1111560.54749   -862770.26246  23156073.764    23156080.910
 03  3 27 22 48  0.0000000  0  9G 2G15G26G17G 6G23G18G29G16
  24885247.944    -3722789.37049  -2888530.94245  24885247.351    24885257.253
  21366313.487    -4584886.55249  -3561786.46347  21366312.780    21366319.793
  21840553.217     -660726.21949   -506918.08646  21840553.249    21840559.581
  20751435.962     -835561.52849   -622474.57248  20751435.380    20751441.967
  21443752.212     4459416.25149   3467164.67247  21443752.009    21443758.744
  20634997.229    -2581659.95749  -2005069.47148  20634996.649    20635003.070
  20815441.485    -4984900.87949  -3872360.00948  20815441.050    20815446.580
  23384321.928     2237002.82649   1741375.33946  23384321.810    23384328.391
  23157604.587    -1103518.22249   -856503.54946  23157604.174    23157611.352
 03  3 27 22 48 30.0000000  0  9G 2G15G26G17G 6G23G18G29G16
  24879589.469    -3752525.03449  -2911701.59245  24879588.909    24879598.767
  21356733.714    -4635228.54349  -3601013.95447  21356732.991    21356740.000
  21844044.260     -642380.61349   -492622.80046  21844044.303    21844050.645
  20750936.532     -838185.80549   -624519.45748  20750935.966    20750942.576
  21457617.894     4532280.60949   3523942.04647  21457617.690    21457624.418
  20632396.963    -2595324.37749  -2015717.04348  20632396.399    20632402.797
  20806932.516    -5029615.78149  -3907202.75048  20806932.101    20806937.590
  23393637.953     2285958.48449   1779522.58346  23393637.842    23393644.385
  23159236.149    -1094944.43949   -849822.70846  23159235.715    23159243.001
 03  3 27 22 49  0.0000000  0  9G 2G15G26G17G 6G23G18G29G16
  24874012.457    -3781832.36349  -2934538.45945  24874011.860    24874021.722
  21347185.116    -4685406.93849  -3640113.97347  21347184.382    21347191.351
  21847659.483     -623382.36549   -477818.97946  21847659.530    21847665.885
  20750473.754     -840617.73049   -626414.45948  20750473.196    20750479.808
  21471559.190     4605542.39949   3581029.10747  21471558.989    21471565.731
  20629878.979    -2608556.35349  -2026027.65048  20629878.392    20629884.807
  20798505.160    -5073901.65549  -3941711.18548  20798504.735    20798510.225
  23403046.358     2335399.92449   1818048.35446  23403046.268    23403052.823
  23160968.825    -1085839.43349   -842727.93346  23160968.425    23160975.631
 03  3 27 22 49 30.0000000  0  9G 2G15G26G17G 6G23G18G29G16
  24868516.963    -3810711.22549  -2957041.46345  24868516.304    24868526.288
  21337667.606    -4735421.63349  -3679086.42747  21337666.871    21337673.857
  21851398.795     -603732.24949   -462507.18946  21851398.822    21851405.180
  20750047.563     -842857.30649   -628159.58048  20750047.021    20750053.634
  21485575.748     4679199.84249   3638424.47147  21485575.556    21485582.315
  20627443.076    -2621357.03249  -2036002.17748  20627442.499    20627448.879
  20790159.450    -5117758.63549  -3975885.41848  20790159.022    20790164.478
  23412546.912     2385325.33549   1856951.25746  23412546.831    23412553.377
  23162802.331    -1076204.54649   -835220.27646  23162801.926    23162809.175
 03  3 27 22 50  0.0000000  0  9G 2G15G26G17G 6G23G18G29G16
  24863103.149    -3839161.16649  -2979210.26345  24863102.552    24863112.448
  21328181.291    -4785272.28049  -3717931.05747  21328180.588    21328187.565
  21855262.093     -583430.69649   -446687.79146  21855262.087    21855268.440
  20749658.041     -844904.26149   -629754.60348  20749657.481    20749664.110
  21499667.346     4753251.47349   3696126.98847  21499667.180    21499673.963
  20625089.105    -2633727.17749  -2045641.22648  20625088.528    20625094.917
  20781895.415    -5161186.31549  -4009725.12848  20781894.974    20781900.423
  23422139.314     2435733.27649   1896230.13846  23422139.210    23422145.691
  23164736.442    -1066040.82149   -827300.52046  23164736.066    23164743.291
 03  3 27 22 50 30.0000000  0  9G 2G15G26G17G 6G23G18G29G16
  24857771.143    -3867181.30049  -3001044.11545  24857770.514    24857780.448
  21318726.369    -4834957.86349  -3756647.06547  21318725.693    21318732.677
  21859249.285     -562477.75049   -430360.81546  21859249.286    21859255.652
  20749305.355     -846757.70449   -631198.83748  20749304.795    20749311.421
  21513833.741     4827696.33949   3754135.92347  21513833.573    21513840.375
  20622816.974    -2645667.21449  -2054945.12348  20622816.401    20622822.771
  20773713.204    -5204184.08949  -4043229.85048  20773712.768    20773718.179
  23431823.187     2486622.70049   1935884.21146  23431823.087    23431829.626
  23166770.998    -1055349.16149   -818969.38346  23166770.608    23166777.898
 03  3 27 22 51  0.0000000  0  9G 2G15G26G17G 6G23G18G29G16
  24852520.831    -3894771.72649  -3022543.14845  24852520.248    24852530.163
  21309302.893    -4884478.47349  -3795234.52447  21309302.207    21309309.177
  21863360.305     -540874.40049   -413527.03646  21863360.281    21863366.645
  20748989.381     -848418.37249   -632492.85648  20748988.794    20748995.387
  21528074.651     4902532.51949   3812449.77347  21528074.474    21528081.296
  20620626.461    -2657178.48049  -2063914.91248  20620625.888    20620632.233
  20765612.680    -5246752.46949  -4076399.98048  20765612.236    20765617.634
  23441598.301     2537991.22149   1975911.60446  23441598.150    23441604.763
  23168905.832    -1044130.83149   -810227.87646  23168905.430    23168912.747
 03  3 27 22 51 30.0000000  0  9G 2G15G26G17G 6G23G18G29G16
  24847352.524    -3921931.67849  -3043706.75045  24847351.996    24847361.858
  21299910.939    -4933833.22849  -3833692.75047  21299910.259    21299917.230
  21867594.994     -518620.85749   -396186.60246  21867594.999    21867601.314
  20748710.270     -849884.99849   -633635.67648  20748709.727    20748716.312
  21542389.808     4977758.95349   3871067.71747  21542389.634    21542396.466
  20618517.424    -2668261.39449  -2072550.92748  20618516.848    20618523.191
  20757594.037    -5288890.57349  -4109234.83048  20757593.617    20757598.988
  23451464.374     2589838.03449   2016311.67546  23451464.230    23451470.984
  23171140.745    -1032386.47049   -801076.46046  23171140.363    23171147.613
 03  3 27 22 52  0.0000000  0  9G 2G15G26G17G 6G23G18G29G16
  24842266.008    -3948661.53349  -3064535.20345  24842265.418    24842275.286
  21290550.520    -4983022.43849  -3872021.97347  21290549.849    21290556.810
  21871953.208     -495718.33949   -378340.48946  21871953.212    21871959.579
  20748468.051     -851157.76349   -634627.43448  20748467.515    20748474.100
  21556778.757     5053373.29249   3929987.92947  21556778.583    21556785.421
  20616489.605    -2678917.60649  -2080854.44348  20616489.052    20616495.369
  20749657.195    -5330598.92049  -4141734.80248  20749656.762    20749662.131
  23461421.049     2642160.62149   2057082.49046  23461420.846    23461427.725
  23173475.380    -1020118.06649   -791516.69246  23173474.967    23173482.228
 03  3 27 22 52 30.0000000  0  9G 2G15G26G17G 6G23G18G29G16
  24837261.470    -3974960.34649  -3085027.79345  24837260.942    24837270.819
  21281221.889    -5032044.73749  -3910221.14347  21281221.237    21281228.165
  21876434.900     -472166.85849   -359988.68946  21876434.909    21876441.267
  20748262.996     -852235.41749   -635467.16248  20748262.437    20748269.043
  21571241.422     5129374.73249   3989209.77147  21571241.240    21571248.074
  20614542.978    -2689147.21349  -2088825.54248  20614542.399    20614548.710
  20741802.243    -5371876.78649  -4173899.33848  20741801.799    20741807.164
  23471468.104     2694958.27449   2098223.49346  23471467.971    23471474.782
  23175909.699    -1007325.96949   -781548.87946  23175909.242    23175916.520
 03  3 27 22 53  0.0000000  0  9G 2G15G26G17G 6G23G18G29G16
  24832339.088    -4000827.82049  -3105184.27345  24832338.530    24832348.461
  21271925.093    -5080899.72249  -3948289.93447  21271924.403    21271931.351
  21881039.985     -447967.16949   -341131.80546  21881039.961    21881046.352
  20748095.035     -853117.87249   -636154.78048  20748094.503    20748101.108
  21585777.382     5205761.68349   4048732.01747  21585777.217    21585784.060
  20612677.308    -2698951.29749  -2096465.06648  20612676.731    20612683.026
  20734029.207    -5412724.29849  -4205728.52848  20734028.771    20734034.114
  23481605.225     2748228.99149   2139733.11046  23481605.063    23481611.908
  23178443.324     -994011.54349   -771174.02846  23178442.908    23178450.183
 03  3 27 22 53 30.0000000  0  9G 2G15G26G17G 6G23G18G29G16
  24827498.786    -4026263.73249  -3125004.46745  24827498.270    24827508.166
  21262660.073    -5129587.49149  -3986228.43247  21262659.417    21262666.337
  21885768.254     -423119.97149   -321770.35346  21885768.248    21885774.593
  20747964.221     -853805.28249   -636690.42348  20747963.674    20747970.268
  21600386.476     5282532.53949   4108553.41047  21600386.293    21600393.134
  20610892.407    -2708330.82349  -2103773.77148  20610891.836    20610898.114
  20726338.014    -5453141.55849  -4237222.46748  20726337.585    20726342.916
  23491832.014     2801970.92249   2181609.90746  23491831.873    23491838.667
  23181076.155     -980176.20749   -760393.28246  23181075.735    23181082.996
 03  3 27 22 54  0.0000000  0  9G 2G15G26G17G 6G23G18G29G16
  24822740.745    -4051267.70649  -3144488.09645  24822740.254    24822750.028
  21253427.019    -5178107.59349  -4024036.28147  21253426.339    21253433.260
  21890619.521     -397626.04149   -301904.96946  21890619.579    21890625.890
  20747870.659     -854297.05449   -637073.61748  20747870.098    20747876.697
  21615068.296     5359685.86149   4168672.82547  21615068.120    21615074.979
  20609188.170    -2717286.63649  -2110752.30948  20609187.586    20609193.869
  20718728.789    -5493128.19649  -4268380.85048  20718728.383    20718733.696
  23502148.235     2856182.65949   2223852.78146  23502148.061    23502154.933
  23183807.910     -965821.20849   -749207.61646  23183807.434    23183814.717
 03  3 27 22 54 30.0000000  0  9G 2G15G26G17G 6G23G18G29G16
  24818064.991    -4075839.53249  -3163634.97145  24818064.391    24818074.313
  21244225.955    -5226459.38949  -4061712.98147  21244225.289    21244232.188
  21895593.810     -371486.06049   -281536.16446  21895593.846    21895600.154
  20747814.393     -854592.75749   -637304.03348  20747813.837    20747820.406
  21629822.594     5437219.98049   4229088.96547  21629822.415    21629829.258
  20607564.387    -2725819.66249  -2117401.40548  20607563.800    20607570.083
  20711201.550    -5532684.13949  -4299203.63048  20711201.124    20711206.443
  23512553.435     2910862.38349   2266460.31646  23512553.278    23512560.125
  23186638.256     -950947.66949   -737617.87546  23186637.835    23186645.116
 03  3 27 22 55  0.0000000  0  9G 2G15G26G17G 6G23G18G29G16
  24813471.314    -4099979.30649  -3182445.21245  24813470.712    24813480.635
  21235057.041    -5274642.43849  -4099258.18947  21235056.366    21235063.248
  21900690.908     -344700.92349   -260664.63546  21900690.937    21900697.204
  20747795.574     -854691.73049   -637381.15548  20747795.020    20747801.590
  21644649.092     5515133.34049   4289800.61447  21644648.911    21644655.733
  20606020.793    -2733931.14249  -2123722.02348  20606020.219    20606026.491
  20703756.214    -5571809.50549  -4329690.89448  20703755.788    20703761.105
  23523047.436     2966008.39649   2309431.19146  23523047.243    23523054.132
  23189567.026     -935556.91549   -725625.12946  23189566.677    23189573.958
 03  3 27 22 55 30.0000000  0  9G 2G15G26G17G 6G23G18G29G16
  24808960.007    -4123686.17649  -3200918.08245  24808959.365    24808969.373
  21225920.353    -5322655.78849  -4136671.16047  21225919.691    21225926.568
  21905910.626     -317271.01149   -239290.70146  21905910.683    21905916.978
  20747814.304     -854593.38149   -637304.52348  20747813.757    20747820.306
  21659547.507     5593424.83349   4350806.91647  21659547.317    21659554.170
  20604557.354    -2741621.62349  -2129714.59048  20604556.782    20604563.048
  20696392.885    -5610503.90249  -4359842.34148  20696392.456    20696397.758
  23533629.884     3021619.48249   2352764.46746  23533629.757    23533636.691
  23192594.092     -919649.88449   -713230.07946  23192593.721    23192601.020
 03  3 27 22 56  0.0000000  0  9G 2G15G26G17G 6G23G18G29G16
  24804531.133    -4146960.29949  -3219053.78445  24804530.551    24804540.329
  21216816.037    -5370499.30549  -4173951.79647  21216815.354    21216822.206
  21911252.830     -289197.38949   -217415.17046  21911252.925    21911259.228
  20747870.676     -854297.32749   -637073.83448  20747870.118    20747876.642
  21674517.552     5672092.56849   4412106.38747  21674517.354    21674524.213
  20603173.770    -2748892.26349  -2135380.01148  20603173.190    20603179.456
  20689111.544    -5648767.46749  -4389658.07348  20689111.116    20689116.406
  23544300.424     3077693.46149   2396458.43046  23544300.320    23544307.293
  23195719.067     -903228.24949   -700434.04146  23195718.688    23195725.967
 03  3 27 22 56 30.0000000  0  9G 2G15G26G17G 6G23G18G29G16
  24800184.600    -4169801.42149  -3236852.05645  24800184.030    24800193.892
  21207744.155    -5418172.32249  -4211099.58047  21207743.485    21207750.324
  21916717.429     -260480.78949   -195038.61446  21916717.532    21916723.846
  20747964.657     -853803.55449   -636689.07748  20747964.073    20747970.587
  21689558.859     5751134.96349   4473697.79347  21689558.661    21689565.541
  20601869.926    -2755743.94149  -2140718.96948  20601869.353    20601875.617
  20681912.209    -5686600.05649  -4419137.98348  20681911.780    20681917.068
  23555058.754     3134228.89349   2440511.97346  23555058.572    23555065.598
  23198941.757     -886293.12349   -687237.88346  23198941.417    23198948.679
 03  3 27 22 57  0.0000000  0  9G 2G15G26G17G 6G23G18G29G16
  24795920.487    -4192209.80649  -3254313.15545  24795919.902    24795929.655
  21198704.759    -5465674.70949  -4248114.40347  21198704.063    21198710.884
  21922304.209     -231122.33549   -172161.91046  21922304.275    21922310.593
  20748096.313     -853111.77149   -636150.02548  20748095.732    20748102.255
  21704671.076     5830550.10749   4535579.65647  21704670.899    21704677.796
  20600645.579    -2762177.92749  -2145732.45248  20600645.000    20600651.278
  20674794.862    -5724001.82249  -4448282.18448  20674794.438    20674799.722
  23565904.454     3191223.42749   2484923.26046  23565904.334    23565911.320
  23202261.838     -868846.11049   -673642.85046  23202261.439    23202268.756
 03  3 27 22 57 30.0000000  0  9G 2G15G26G17G 6G23G18G29G16
  24791738.772    -4214184.82049  -3271436.54445  24791738.167    24791747.942
  21189698.011    -5513005.80549  -4284995.74747  21189697.278    21189704.108
  21928012.994     -201122.72349   -148785.61146  21928013.062    21928019.356
  20748265.831     -852221.02149   -635455.93748  20748265.245    20748271.747
  21719854.015     5910336.69249   4597750.95747  21719853.828    21719860.752
  20599500.554    -2768194.90849  -2150420.99148  20599499.993    20599506.273
  20667759.502    -5760972.75549  -4477090.67248  20667759.088    20667764.360
  23576837.358     3248675.81049   2529691.30746  23576837.205    23576844.192
  23205679.107     -850888.52549   -659649.96646  23205678.703    23205686.016
 03  3 27 22 58  0.0000000  0  9G 2G15G26G17G 6G23G18G29G16
  24787639.580    -4235726.33149  -3288222.15445  24787639.044    24787648.723
  21180723.874    -5560165.00749  -4321743.15047  21180723.150    21180729.975
  21933843.529     -170482.99549   -124910.51046  21933843.616    21933849.924
  20748473.222     -851131.19249   -634606.72648  20748472.631    20748479.148
  21735107.298     5990493.06749   4660210.40547  21735107.118    21735114.061
  20598434.680    -2773796.00949  -2154785.47048  20598434.111    20598440.394
  20660806.161    -5797512.78549  -4505563.39248  20660805.752    20660811.013
  23587857.022     3306584.00149   2574814.54446  23587856.856    23587863.773
  23209193.219     -832421.78049   -645260.34846  23209192.840    23209200.140
 03  3 27 22 58 30.0000000  0  9G 2G15G26G17G 6G23G18G29G16
  24783622.933    -4256834.07449  -3304669.76045  24783622.415    24783632.051
  21171782.574    -5607151.67149  -4358356.11247  21171781.870    21171788.714
  21939795.760     -139203.91549   -100537.21046  21939795.845    21939802.140
  20748718.631     -849841.53049   -633601.80248  20748718.061    20748724.569
  21750430.701     6071017.77349   4722956.86047  21750430.530    21750437.471
  20597447.796    -2778982.03949  -2158826.52048  20597447.224    20597453.496
  20653934.799    -5833621.89149  -4533700.32748  20653934.389    20653939.659
  23598963.120     3364946.53249   2620291.81546  23598962.898    23598969.827
  23212804.012     -813447.19049   -630475.00146  23212803.671    23212810.932
 03  3 27 22 59  0.0000000  0 10G 2G15G26G17G 6G23G18G29G16G 3
  24779688.264    -4277510.73649  -3320781.45345  24779687.809    24779697.469
  21162873.693    -5653967.87249  -4394836.24747  21162873.008    21162879.833
  21945868.918     -107289.15149    -75668.58046  21945869.001    21945875.330
  20749001.607     -848354.55649   -632443.12148  20749001.025    20749007.554
  21765823.378     6151906.41949   4785986.90847  21765823.224    21765830.165
  20596539.179    -2783756.86149  -2162547.14248  20596538.613    20596544.878
  20647144.908    -5869302.87149  -4561503.65948  20647144.499    20647149.744
  23610154.770     3423758.96149   2666119.64346  23610154.620    23610161.525
  23216510.710     -793968.68449   -615296.99746  23216510.344    23216517.612
  24565869.795    -3985677.97549  -3094701.58045  24565869.932    24565879.913
 03  3 27 22 59 30.0000000  0 10G 2G15G26G17G 6G23G18G29G16G 3
  24775836.369    -4297752.76749  -3336554.47345  24775835.836    24775845.585
  21153998.014    -5700609.88249  -4431180.64447  21153997.323    21154004.140
  21952063.598      -74736.23149    -50302.68246  21952063.633    21952069.948
  20749322.938     -846666.16749   -631127.49948  20749322.323    20749328.865
  21781285.584     6233160.70849   4849301.87047  21781285.430    21781292.422
  20595709.247    -2788118.12449  -2165945.51448  20595708.688    20595714.931
  20640437.147    -5904552.29749  -4588970.71648  20640436.743    20640441.987
  23621432.277     3483022.59649   2712299.04446  23621432.162    23621439.104
  23220313.621     -773984.34749   -599724.83046  23220313.251    23220320.534
  24546670.297    -4086573.01549  -3173320.98745  24546670.244    24546680.071
 03  3 27 23  0  0.0000000  0 10G 2G15G26G17G 6G23G18G29G16G 3
  24772067.153    -4317560.11249  -3351988.78445  24772066.585    24772076.416
  21145155.549    -5747077.24749  -4467388.95847  21145154.854    21145161.661
  21958379.391      -41546.49649    -24440.56146  21958379.450    21958385.763
  20749682.675     -844775.76749   -629654.46148  20749682.064    20749688.603
  21796817.065     6314778.86249   4912900.36847  21796816.927    21796823.931
  20594957.775    -2792067.06949  -2169022.59548  20594957.208    20594963.471
  20633811.482    -5939370.32049  -4616101.61148  20633811.070    20633816.302
  23632795.315     3542735.52249   2758828.56046  23632795.206    23632802.173
  23224212.457     -753495.96549   -583759.91046  23224212.103    23224219.373
  24527495.219    -4187339.35549  -3251840.11245  24527495.048    24527504.664
 03  3 27 23  0 30.0000000  0 10G 2G15G26G17G 6G23G18G29G16G 3
  24768380.486    -4336933.71549  -3367085.12145  24768379.897    24768389.808
  21136346.313    -5793370.23849  -4503461.38747  21136345.603    21136352.392
  21964816.027       -7721.97449      1916.19346  21964816.084    21964822.374
  20750080.721     -842683.89349   -628024.43248  20750080.118    20750086.659
  21812417.299     6396758.24649   4976780.33447  21812417.127    21812424.138
  20594284.414    -2795605.60149  -2171779.87748  20594283.854    20594290.092
  20627267.734    -5973757.84649  -4642897.05648  20627267.320    20627272.549
  23644243.430     3602895.11149   2805706.12046  23644243.271    23644250.189
  23228206.744     -732506.01349   -567404.16046  23228206.347    23228213.663
  24508344.741    -4287975.51449  -3330257.83645  24508344.617    24508354.227
 03  3 27 23  1  0.0000000  0 10G 2G15G26G17G 6G23G18G29G16G 3
  24764776.534    -4355872.63549  -3381842.74245  24764775.952    24764785.835
  21127570.460    -5839487.36749  -4539396.78547  21127569.788    21127576.566
  21971373.355       26737.21249     28767.47746  21971373.454    21971379.742
  20750517.293     -840389.84549   -626236.86248  20750516.656    20750523.218
  21828086.122     6479098.10349   5040941.19247  21828085.980    21828092.989
  20593689.104    -2798733.86849  -2174217.47348  20593688.536    20593694.773
  20620806.035    -6007714.15049  -4669356.48548  20620805.623    20620810.847
  23655776.293     3663500.31149   2852930.90646  23655776.087    23655783.027
  23232296.445     -711014.81749   -550657.82546  23232296.046    23232303.362
  24489219.609    -4388478.21349  -3408571.54445  24489219.506    24489229.060
 03  3 27 23  1 30.0000000  0 10G 2G15G26G17G 6G23G18G29G16G 3
  24761255.234    -4374377.35449  -3396262.01245  24761254.581    24761264.491
  21118828.113    -5885428.49849  -4575195.04947  21118827.450    21118834.221
  21978051.265       61829.70549     56112.26646  21978051.332    21978057.660
  20750992.465     -837892.95349   -624291.23248  20750991.827    20750998.388
  21843823.119     6561796.25449   5105381.23047  21843822.956    21843829.971
  20593171.609    -2801453.39049  -2176336.56748  20593171.034    20593177.249
  20614426.314    -6041239.76949  -4695480.31948  20614425.890    20614431.120
  23667393.498     3724549.02649   2900501.29146  23667393.325    23667400.285
  23236481.095     -689024.46449   -533522.53346  23236480.729    23236488.004
  24470120.359    -4488845.62049  -3486779.83845  24470120.129    24470129.561
 03  3 27 23  2  0.0000000  0 10G 2G15G26G17G 6G23G18G29G16G 3
  24757816.520    -4392448.13749  -3410343.17645  24757815.821    24757825.655
  21110119.376    -5931193.18949  -4610855.81847  21110118.719    21110125.478
  21984849.347       97553.91349     83949.29746  21984849.416    21984855.778
  20751506.234     -835192.99249   -622187.36948  20751505.612    20751512.142
  21859627.934     6644850.85549   5170099.03447  21859627.785    21859634.837
  20592731.622    -2803765.56749  -2178138.24748  20592731.049    20592737.256
  20608128.424    -6074335.27549  -4721268.99748  20608128.010    20608133.237
  23679094.692     3786038.99649   2948415.52146  23679094.524    23679101.355
  23240760.376     -666536.78349   -515999.71746  23240760.027    23240767.305
  24451047.199    -4589075.62849  -3564881.07745  24451046.972    24451056.303
 03  3 27 23  2 30.0000000  0 10G 2G15G26G17G 6G23G18G29G16G 3
  24754460.322    -4410085.06149  -3424086.25045  24754459.685    24754469.538
  21101444.301    -5976780.93049  -4646378.70947  21101443.625    21101450.394
  21991767.478      133908.81149    112277.76646  21991767.536    21991773.904
  20752058.758     -832289.47449   -619924.89048  20752058.119    20752064.655
  21875500.236     6728260.12649   5235093.19647  21875500.076    21875507.156
  20592368.943    -2805671.48449  -2179623.36448  20592368.370    20592374.571
  20601912.404    -6107000.54749  -4746722.43048  20601911.993    20601917.203
  23690879.423     3847968.40149   2996672.15846  23690879.315    23690886.220
  23245134.011     -643553.40249   -498090.65646  23245133.699    23245140.959
  24432000.706    -4689165.67449  -3642873.25145  24432000.468    24432009.399
 03  3 27 23  3  0.0000000  0 10G 2G15G26G17G 6G23G18G29G16G 3
  24751186.733    -4427288.08049  -3437491.21445  24751186.110    24751195.929
  21092802.980    -6022191.25749  -4681763.35947  21092802.317    21092809.093
  21998805.339      170892.90949    141096.52146  21998805.384    21998811.834
  20752650.080     -829182.09449   -617503.55348  20752649.450    20752656.014
  21891439.692     6812022.25949   5300362.31447  21891439.522    21891446.625
  20592083.311    -2807172.36449  -2180792.86548  20592082.738    20592088.934
  20595778.191    -6139235.85749  -4771840.82648  20595777.780    20595782.997
  23702747.446     3910335.12649   3045269.56246  23702747.250    23702754.258
  23249601.623     -620076.11149   -479796.70946  23249601.256    23249608.627
  24412981.257    -4789113.89149  -3720754.88945  24412980.955    24412989.671
 03  3 27 23  3 30.0000000  0 10G 2G15G26G17G 6G23G18G29G16G 3
  24747995.689    -4444057.30749  -3450558.16745  24747995.059    24748004.896
  21084195.578    -6067423.55849  -4717009.28347  21084194.886    21084201.651
  22005962.746      208505.15249    170404.75046  22005962.819    22005969.241
  20753280.309     -825870.05849   -614922.74748  20753279.683    20753286.248
  21907445.934     6896135.49449   5365905.01647  21907445.771    21907452.906
  20591874.562    -2808269.27849  -2181647.59148  20591873.982    20591880.188
  20589725.790    -6171041.34749  -4796624.30148  20589725.380    20589730.596
  23714698.294     3973137.20049   3094206.20345  23714698.116    23714705.208
  23254162.933     -596106.46349   -461119.11346  23254162.558    23254169.946
  24393988.991    -4888917.88549  -3798524.11945  24393988.773    24393997.609
 03  3 27 23  4  0.0000000  0 10G 2G15G26G17G 6G23G18G29G16G 3
  24744887.135    -4460392.95849  -3463287.27745  24744886.511    24744896.278
  21075622.070    -6112477.45249  -4752116.19247  21075621.401    21075628.156
  22013239.378      246743.91349    200201.17546  22013239.421    22013245.850
  20753949.521     -822353.33949   -612182.44648  20753948.900    20753955.482
  21923518.675     6980598.04549   5431719.91547  21923518.514    21923525.665
  20591742.454    -2808963.47449  -2182188.51048  20591741.884    20591748.086
  20583755.101    -6202417.43449  -4821073.17348  20583754.683    20583759.891
  23726731.653     4036372.67149   3143480.54245  23726731.465    23726738.530
  23258817.609     -571646.07149   -442059.13546  23258817.265    23258824.697
  24375024.645    -4988575.38349  -3876179.18845  24375024.382    24375033.296
 03  3 27 23  4 30.0000000  0 10G 2G15G26G17G 6G23G18G29G16G 3
  24741861.131    -4476294.88449  -3475678.41245  24741860.486    24741870.218
  21067082.724    -6157352.07749  -4787083.40947  21067082.013    21067088.772
  22020635.033      285608.41249    230485.19346  22020635.091    22020641.546
  20754657.768     -818631.29349   -609282.15048  20754657.180    20754663.761
  21939657.629     7065408.26049   5497805.72547  21939657.431    21939664.642
  20591686.752    -2809256.06149  -2182416.48748  20591686.202    20591692.400
  20577866.103    -6233364.12549  -4845187.45048  20577865.700    20577870.911
  23738847.052     4100039.68949   3193091.15645  23738846.868    23738854.037
  23263565.398     -546696.49849   -422617.96246  23263565.059    23263572.476
  24356088.703    -5088083.75649  -3953718.08445  24356088.491    24356097.295
 03  3 27 23  5  0.0000000  0 10G 2G15G26G17G 6G23G18G29G16G 3
  24738917.633    -4491763.33249  -3487731.77045  24738917.014    24738926.704
  21058577.550    -6202046.87249  -4821910.50447  21058576.871    21058583.627
  22028149.467      325096.99349    261255.50446  22028149.490    22028155.958
  20755405.247     -814703.45249   -606221.49648  20755404.642    20755411.230
  21955862.329     7150564.25349   5564160.96147  21955862.133    21955869.360
  20591707.293    -2809148.23149  -2182332.45348  20591706.728    20591712.914
  20572058.819    -6263881.58649  -4868967.26448  20572058.410    20572063.600
  23751044.298     4164136.26849   3243036.49445  23751044.084    23751051.153
  23268405.963     -521259.44349   -402796.94146  23268405.618    23268413.030
  24337181.733    -5187440.73349  -4031138.98745  24337181.570    24337190.303
 03  3 27 23  5 30.0000000  0 10G 2G15G26G17G 6G23G18G29G16G 3
  24736056.552    -4506798.56649  -3499447.56645  24736055.885    24736065.655
  21050106.697    -6246561.52849  -4856597.22947  21050106.015    21050112.752
  22035782.412      365208.33249    292511.08146  22035782.465    22035788.894
  20756191.990     -810568.87649   -602999.75348  20756191.418    20756198.008
  21972132.466     7236064.23849   5630784.23847  21972132.259    21972139.532
  20591803.737    -2808641.25349  -2181937.39248  20591803.181    20591809.363
  20566333.134    -6293970.12349  -4892412.85348  20566332.714    20566337.899
  23763322.818     4228660.18349   3293314.82245  23763322.574    23763329.666
  23273338.888     -495336.98149   -382597.67146  23273338.552    23273346.008
  24318303.765    -5286644.16449  -4108440.19945  24318303.489    24318312.611
 03  3 27 23  6  0.0000000  0 10G 2G15G26G17G 6G23G18G29G16G 3
  24733278.006    -4521400.07649  -3510825.41145  24733277.348    24733287.044
  21041670.364    -6290894.81149  -4891142.62447  21041669.665    21041676.393
  22043533.695      405941.51649    324251.21446  22043533.729    22043540.139
  20757018.166     -806227.14449   -599616.58748  20757017.616    20757024.207
  21988467.845     7321906.77549   5697674.44447  21988467.641    21988474.899
  20591976.020    -2807735.85549  -2181231.87748  20591975.462    20591981.636
  20560689.108    -6323629.61449  -4915524.12148  20560688.681    20560693.868
  23775682.410     4293610.04849   3343925.05345  23775682.168    23775689.129
  23278364.030     -468929.98849   -362020.85546  23278363.674    23278371.104
  24299455.302    -5385691.02249  -4185619.44145  24299455.167    24299464.558
 03  3 27 23  6 30.0000000  0 10G 2G15G26G17G 6G23G18G29G16G 3
  24730581.736    -4535568.96849  -3521866.14545  24730581.105    24730590.733
  21033268.434    -6335046.89749  -4925546.82747  21033267.752    21033274.503
  22051402.943      447294.53449    356474.33446  22051402.981    22051409.404
  20757883.859     -801678.00049   -596071.80248  20757883.296    20757889.878
  22004867.907     7408089.41549   5764829.66447  22004867.717    22004874.990
  20592223.782    -2806433.81349  -2180217.28748  20592223.230    20592229.406
  20555126.579    -6352860.77349  -4938301.62348  20555126.162    20555131.333
  23788122.547     4358983.35649   3394865.22845  23788122.286    23788129.307
  23283480.882     -442040.95349   -341068.42046  23283480.512    23283487.957
  24280637.296    -5484579.52749  -4262675.29545  24280637.256    24280646.499
 03  3 27 23  7  0.0000000  0 10G 2G15G26G17G 6G23G18G29G16G 3
  24727967.952    -4549305.04049  -3532569.60945  24727967.285    24727976.949
  21024901.192    -6379016.97949  -4959809.21847  21024900.554    21024907.263
  22059389.886      489266.04149    389179.38846  22059389.902    22059396.304
  20758789.084     -796921.05549   -592365.09748  20758788.510    20758795.092
  22021332.362     7494610.37949   5832248.51047  22021332.179    22021339.477
  20592546.822    -2804736.23249  -2178894.48848  20592546.267    20592552.426
  20549645.510    -6381663.93849  -4960745.62948  20549645.097    20549650.248
  23800642.929     4424777.89649   3446133.65245  23800642.678    23800649.543
  23288689.129     -414671.61949   -319741.72946  23288688.727    23288696.242
  24261850.089    -5583307.14949  -4339605.77745  24261850.000    24261859.116
 03  3 27 23  7 30.0000000  0 10G 2G15G26G17G 6G23G18G29G16G 3
  24725436.377    -4562608.47249  -3542935.96445  24725435.757    24725445.457
  21016568.747    -6422804.19749  -4993929.10847  21016568.083    21016574.783
  22067494.220      531854.65649    422365.30546  22067494.232    22067500.700
  20759733.975     -791955.80449   -588496.06748  20759733.386    20759739.958
  22037860.900     7581468.13249   5899929.79747  22037860.706    22037868.049
  20592944.906    -2802644.35549  -2177264.44348  20592944.351    20592950.512
  20544245.875    -6410039.07049  -4982856.09548  20544245.475    20544250.616
  23813243.112     4490991.97749   3497728.97945  23813242.825    23813249.703
  23293988.404     -386823.71349   -298042.11546  23293988.008    23293995.623
  24243094.050    -5681871.54049  -4416409.09645  24243093.836    24243103.087
 03  3 27 23  8  0.0000000  0 10G 2G15G26G17G 6G23G18G29G16G 3
  24722987.017    -4575480.04149  -3552965.79145  24722986.353    24722996.063
  21008271.176    -6466408.34449  -5027906.35447  21008270.497    21008277.183
  22075715.695      575058.64449    456030.72446  22075715.690    22075722.253
  20760718.498     -786782.04649   -584464.57048  20760717.914    20760724.500
  22054453.091     7668660.38549   5967871.76147  22054452.900    22054460.271
  20593417.703    -2800159.71449  -2175328.35648  20593417.154    20593423.298
  20538927.520    -6437987.08749  -5004633.75048  20538927.117    20538932.266
  23825922.660     4557623.22249   3549649.36145  23825922.438    23825929.282
  23299378.490     -358499.11949   -275971.07046  23299378.116    23299385.648
  24224369.179    -5780270.65449  -4493083.61745  24224368.979    24224378.281
 03  3 27 23  8 30.0000000  0 10G 2G15G26G17G 6G23G18G29G16G 3
  24720619.941    -4587919.12449  -3562658.62145  24720619.282    24720629.057
  21000008.655    -6509828.13049  -5061739.93947  21000007.957    21000014.661
  22084054.043      618877.13149    490174.97946  22084054.078    22084060.644
  20761743.025     -781398.06549   -580269.26448  20761742.435    20761749.042
  22071108.687     7756185.78349   6036073.28147  22071108.519    22071115.858
  20593965.130    -2797282.98849  -2173086.74448  20593964.595    20593970.753
  20533690.539    -6465507.45049  -5026078.16748  20533690.132    20533695.301
  23838681.235     4624670.03449   3601893.57845  23838681.004    23838687.881
  23304858.989     -329699.16049   -253529.60146  23304858.582    23304866.201
  24205676.222    -5878501.83949  -4569627.29245  24205676.109    24205685.436
 03  3 27 23  9  0.0000000  0 10G 2G15G26G17G 6G23G18G29G16G 3
  24718335.109    -4599926.38349  -3572014.96945  24718334.443    24718344.220
  20991781.239    -6553063.42949  -5095429.76947  20991780.563    20991787.269
  22092509.035      663308.17749    524796.55346  22092509.064    22092515.601
  20762807.494     -775804.20949   -575910.42148  20762806.908    20762813.504
  22087827.251     7844042.06249   6104532.62847  22087827.086    22087834.425
  20594586.859    -2794015.80549  -2170540.87848  20594586.305    20594592.469
  20528534.794    -6492601.02249  -5047190.02148  20528534.391    20528539.554
  23851518.497     4692130.01549   3654459.74645  23851518.268    23851525.201
  23310429.457     -300426.38249   -230719.71346  23310429.066    23310436.689
  24187015.927    -5976562.67349  -4646038.22845  24187015.807    24187024.930
 03  3 27 23  9 30.0000000  0 10G 2G15G26G17G 6G23G18G29G16G 3
  24716132.396    -4611501.87349  -3581034.87345  24716131.738    24716141.510
  20983589.068    -6596113.52449  -5128975.28047  20983588.364    20983595.064
  22101080.257      708350.10549    559894.13146  22101080.270    22101086.817
  20763912.030     -769999.82649   -571387.52948  20763911.463    20763918.056
  22104608.420     7932227.47949   6173248.43547  22104608.278    22104615.595
  20595282.616    -2790359.34749  -2167691.67748  20595282.073    20595288.247
  20523460.223    -6519268.00349  -5067969.46348  20523459.805    20523464.982
  23864433.847     4760001.03049   3707346.17545  23864433.666    23864440.674
  23316089.551     -270682.52949   -207542.76046  23316089.147    23316096.848
  24168388.606    -6074450.85749  -4722314.64545  24168388.273    24168397.232
 03  3 27 23 10  0.0000000  0 10G 2G15G26G17G 6G23G18G29G16G 3
  24714011.754    -4622646.00649  -3589718.66945  24714011.096    24714020.910
  20975432.269    -6638977.43749  -5162375.71747  20975431.621    20975438.326
  22109767.442      754001.49849    595466.62046  22109767.477    22109773.979
  20765056.795     -763984.13649   -566699.98448  20765056.221    20765062.802
  22121451.946     8020740.32149   6242219.39247  22121451.777    22121459.140
  20596052.344    -2786314.59049  -2164539.91348  20596051.790    20596057.947
  20518466.790    -6545508.53049  -5088416.60848  20518466.391    20518471.547
  23877427.159     4828281.31749   3760551.52445  23877427.021    23877434.005
  23321839.010     -240469.24049   -183999.99846  23321838.617    23321846.318
  24149794.345    -6172163.84749  -4798454.53345  24149794.055    24149802.945
 03  3 27 23 10 30.0000000  0 10G 2G15G26G17G 6G23G18G29G16G 3
  24711973.166    -4633359.13549  -3598066.60945  24711972.458    24711982.280
  20967311.115    -6681654.51049  -5195630.56647  20967310.443    20967317.132
  22118570.335      800260.86449    631512.86646  22118570.392    22118576.872
  20766241.814     -757756.68749   -561847.42948  20766241.270    20766247.834
  22138357.386     8109578.63549   6311443.99947  22138357.214    22138364.604
  20596895.611    -2781883.05649  -2161086.76148  20596895.076    20596901.225
  20513554.426    -6571323.03349  -5108531.78248  20513554.002    20513559.183
  23890497.946     4896968.57449   3814073.99045  23890497.782    23890504.790
  23327677.394     -209788.51449   -160092.99846  23327677.035    23327684.712
  24131233.897    -6269699.21149  -4874456.01645  24131233.625    24131242.389
 03  3 27 23 11  0.0000000  0 10G 2G15G26G17G 6G23G18G29G16G 3
  24710016.500    -4643641.57149  -3606078.94845  24710015.761    24710025.634
  20959225.554    -6724144.28949  -5228739.47247  20959224.901    20959231.576
  22127488.560      847126.43949    668031.46446  22127488.588    22127495.076
  20767467.237     -751317.09049   -556829.57048  20767466.692    20767473.254
  22155324.354     8198740.23049   6380920.48947  22155324.188    22155331.598
  20597812.247    -2777066.17149  -2157333.33948  20597811.702    20597817.853
  20508723.063    -6596711.96649  -5128315.35148  20508722.667    20508727.826
  23903645.810     4966060.67649   3867911.93545  23903645.610    23903652.644
  23333604.425     -178642.15649   -135823.18546  23333604.042    23333611.724
  24112707.822    -6367054.46949  -4950317.17345  24112707.570    24112716.221
 03  3 27 23 11 30.0000000  0 10G 2G15G26G17G 6G23G18G29G16G 3
  24708141.743    -4653493.77549  -3613756.03145  24708141.040    24708150.919
  20951175.829    -6766445.91549  -5261701.76147  20951175.173    20951181.843
  22136521.868      894596.61449    705021.18946  22136521.885    22136528.412
  20768733.196     -744664.52449   -551645.76448  20768732.656    20768739.223
  22172352.470     8288223.27849   6450647.44846  22172352.270    22172359.718
  20598802.001    -2771865.03249  -2153280.49748  20598801.437    20598807.596
  20503972.601    -6621675.61349  -5147767.52248  20503972.215    20503977.374
  23916870.437     5035555.61349   3922063.77945  23916870.225    23916877.296
  23339619.653     -147032.24749   -111192.16646  23339619.307    23339626.959
  24094216.311    -6464227.16849  -5026036.05545  24094216.082    24094224.823
 03  3 27 23 12  0.0000000  0 10G 2G15G26G17G 6G23G18G29G16G 3
  24706348.790    -4662915.95949  -3621098.04245  24706348.091    24706358.015
  20943162.003    -6808558.80349  -5294516.98347  20943161.331    20943168.014
  22145669.892      942669.76549    742480.75646  22145669.952    22145676.455
  20770039.758     -737798.45549   -546295.58048  20770039.221    20770045.816
  22189441.425     8378025.95549   6520623.45846  22189441.219    22189448.668
  20599864.589    -2766281.02449  -2148929.31448  20599864.041    20599870.180
  20499303.008    -6646214.49149  -5166888.70948  20499302.628    20499307.787
  23930171.058     5105451.18249   3976527.80345  23930170.877    23930178.071
  23345722.799     -114960.49149    -86201.26546  23345722.443    23345730.075
  24075759.992    -6561215.16949  -5101611.02745  24075759.768    24075768.540
 03  3 27 23 12 30.0000000  0 10G 2G15G26G17G 6G23G18G29G16G 3
  24704637.542    -4671908.49749  -3628105.25445  24704636.886    24704646.874
  20935184.264    -6850482.15349  -5327184.51647  20935183.584    20935190.253
  22154932.323      991344.24949    780408.89646  22154932.389    22154938.903
  20771387.039     -730718.38349   -540778.64548  20771386.498    20771393.100
  22206590.808     8468146.30549   6590846.99846  22206590.607    22206598.070
  20600999.811    -2760315.38649  -2144280.75648  20600999.255    20601005.399
  20494714.179    -6670328.88949  -5185679.13048  20494713.795    20494718.954
  23943547.575     5175745.34349   4031302.39945  23943547.437    23943554.743
  23351913.378      -82428.94849    -60852.08446  23351913.017    23351920.665
  24057339.411    -6658015.86449  -5177040.04345  24057339.161    24057347.844
 03  3 27 23 13  0.0000000  0 10G 2G15G26G17G 6G23G18G29G16G 3
  24703007.960    -4680471.99549  -3634778.16445  24703007.324    24703017.319
  20927242.590    -6892215.64449  -5359704.10547  20927241.922    20927248.619
  22164308.904     1040618.02949    818804.03246  22164308.928    22164315.396
  20772775.101     -723424.12449   -535094.81548  20772774.577    20772781.161
  22223800.269     8558582.21449   6661316.42646  22223800.083    22223807.598
  20602207.343    -2753969.71349  -2139336.07048  20602206.769    20602212.938
  20490205.970    -6694019.65349  -5204139.45148  20490205.586    20490210.723
  23956999.599     5246435.71749   4086385.75645  23956999.384    23957006.747
  23358190.956      -49440.04149    -35146.51946  23358190.631    23358198.312
  24038954.820    -6754626.94649  -5252321.31445  24038954.568    24038963.163
 03  3 27 23 13 30.0000000  0 10G 2G15G26G17G 6G23G18G29G16G 3
  24701460.009    -4688606.56949  -3641116.85945  24701459.366    24701469.418
  20919337.340    -6933758.11849  -5392074.84347  20919336.655    20919343.346
  22173799.199     1090489.77249    857665.09746  22173799.248    22173805.741
  20774204.176     -715914.32049   -529243.02448  20774203.618    20774210.201
  22241069.481     8649332.12749   6732030.57146  22241069.298    22241076.828
  20603487.024    -2747244.91749  -2134095.96548  20603486.483    20603492.622
  20485778.374    -6717286.73749  -5222269.62748  20485777.981    20485783.116
  23970526.640     5317520.46649   4141776.41545  23970526.490    23970533.890
  23364555.414      -15995.28149     -9085.75346  23364555.055    23364562.654
  24020606.996    -6851045.65949  -5327452.69545  24020606.680    24020615.231
 03  3 27 23 14  0.0000000  0 10G 2G15G26G17G 6G23G18G29G16G 3
  24699993.557    -4696313.30549  -3647122.14945  24699992.911    24700002.962
  20911468.468    -6975109.41649  -5424296.62147  20911467.772    20911474.455
  22183402.828     1140957.15349    896990.30546  22183402.880    22183409.348
  20775674.218     -708189.30149   -523223.53948  20775673.670    20775680.242
  22258397.973     8740393.62249   6802987.48346  22258397.791    22258405.334
  20604838.464    -2740142.94149  -2128561.95148  20604837.908    20604844.079
  20481431.273    -6740130.98449  -5240070.32748  20481430.870    20481436.020
  23984128.286     5388996.94249   4197472.29245  23984128.103    23984135.464
  23371006.076       17902.84949     17328.29146  23371005.680    23371013.396
  24002295.815    -6947270.11049  -5402432.69045  24002295.607    24002304.041
 03  3 27 23 14 30.0000000  0 10G 2G15G26G17G 6G23G18G29G16G 3
  24698608.609    -4703591.95849  -3652793.88445  24698607.879    24698617.898
  20903636.159    -7016268.44749  -5456368.57647  20903635.464    20903642.131
  22193119.566     1192019.01549    936778.74346  22193119.663    22193126.145
  20777185.501     -700247.58049   -517035.19048  20777184.944    20777191.499
  22275785.480     8831765.14749   6874185.98546  22275785.275    22275792.869
  20606261.564    -2732664.57949  -2122734.64848  20606260.992    20606267.171
  20477164.612    -6762552.38349  -5257541.52848  20477164.204    20477169.329
  23997804.071     5460863.45749   4253472.09945  23997803.866    23997811.225
  23377542.672       52252.71449     44094.34846  23377542.274    23377550.009
  23984022.310    -7043297.46649  -5477259.10245  23984022.187    23984030.584
 03  3 27 23 15  0.0000000  0 10G 2G15G26G17G 6G23G18G29G16G 3
  24697304.762    -4710443.62349  -3658132.87945  24697304.202    24697314.167
  20895840.485    -7057234.94849  -5488290.51147  20895839.791    20895846.428
  22202948.935     1243672.74049    977028.37346  22202949.038    22202955.524
  20778738.003     -692089.26149   -510678.06748  20778737.429    20778744.020
  22293231.501     8923444.11349   6945624.04246  22293231.297    22293238.908
  20607755.936    -2724811.59849  -2116615.43748  20607755.368    20607761.546
  20472978.254    -6784551.86149  -5274683.96348  20472977.842    20472982.944
  24011553.616     5533117.14849   4309773.62146  24011553.368    24011560.803
  23384164.843       87051.86849     71210.48046  23384164.420    23384172.137
  23965786.801    -7139125.66649  -5551930.33145  23965786.581    23965794.902
 03  3 27 23 15 30.0000000  0 10G 2G15G26G17G 6G23G18G29G16G 3
  24696082.224    -4716868.17449  -3663139.08245  24696081.688    24696091.576
  20888081.693    -7098007.57249  -5520061.36847  20888081.002    20888087.675
  22212890.774     1295917.33749   1017738.43046  22212890.906    22212897.428
  20780331.958     -683713.09649   -504151.19348  20780331.386    20780337.978
  22310735.689     9015429.04549   7017300.50946  22310735.509    22310743.127
  20609321.414    -2716584.91549  -2110205.03148  20609320.844    20609327.011
  20468872.158    -6806129.52049  -5291497.70448  20468871.745    20468876.842
  24025376.416     5605756.54649   4366375.68245  24025376.238    24025383.636
  23390872.162      122298.70749     98675.46546  23390871.796    23390879.449
  23947589.711    -7234751.78549  -5626444.07945  23947589.449    23947597.769
 03  3 27 23 16  0.0000000  0 10G 2G15G26G17G 6G23G18G29G16G 3
  24694940.793    -4722866.48949  -3667813.16045  24694940.298    24694950.147
  20880359.838    -7138586.11149  -5551680.99447  20880359.148    20880365.832
  22222944.624     1348750.39849   1058907.02746  22222944.735    22222951.225
  20781967.401     -675119.04249   -497454.52848  20781966.784    20781973.380
  22328297.661     9107717.67049   7089213.63846  22328297.491    22328305.143
  20610957.625    -2707986.35349  -2103504.84648  20610957.081    20610963.227
  20464846.137    -6827286.26449  -5307983.46048  20464845.732    20464850.816
  24039272.209     5678779.13649   4423276.34146  24039272.088    24039279.439
  23397664.160      157990.67749    126487.31146  23397663.784    23397671.460
  23929431.335    -7330173.69449  -5700798.69145  23929431.139    23929439.642
 03  3 27 23 16 30.0000000  0 10G 2G15G26G17G 6G23G18G29G16G 3
  24693880.471    -4728439.04149  -3672155.46145  24693879.923    24693889.834
  20872675.068    -7178969.66449  -5583148.68547  20872674.398    20872681.086
  22233110.095     1402170.12049   1100532.75046  22233110.218    22233116.695
  20783644.297     -666306.58449   -490587.68748  20783643.723    20783650.313
  22345917.078     9200308.03649   7161361.88246  22345916.913    22345924.606
  20612664.440    -2699017.09049  -2096515.80748  20612663.890    20612670.054
  20460900.178    -6848022.29349  -5324141.38848  20460899.794    20460904.867
  24053240.546     5752182.65449   4480473.82546  24053240.448    24053247.814
  23404540.559      194125.93049    154644.56546  23404540.193    23404547.860
  23911312.433    -7425388.95549  -5774992.31145  23911312.273    23911320.532
 03  3 27 23 17  0.0000000  0 10G 2G15G26G17G 6G23G18G29G16G 3
  24692900.994    -4733586.49049  -3676166.51945  24692900.390    24692910.353
  20865027.600    -7219157.44949  -5614463.82647  20865026.902    20865033.576
  22243386.812     1456174.53349   1142614.08646  22243386.914    22243393.372
  20785363.034     -657274.70649   -483549.86648  20785362.473    20785369.063
  22363593.543     9293198.20849   7233743.73746  22363593.367    22363601.083
  20614441.518    -2689678.50449  -2089238.97948  20614440.969    20614447.130
  20457034.192    -6868338.19449  -5339971.94348  20457033.800    20457038.872
  24067280.852     5825964.88049   4537966.38645  24067280.698    24067288.198
  23411500.888      230702.11649    183145.41146  23411500.525    23411508.153
  23893233.138    -7520395.17049  -5849023.00845  23893232.979    23893241.445
 03  3 27 23 17 30.0000000  0 10G 2G15G26G17G 6G23G18G29G16G 3
  24692002.316    -4738309.04649  -3679846.49145  24692001.793    24692011.643
  20857417.603    -7259148.43849  -5645625.61847  20857416.881    20857423.539
  22253774.497     1510761.99249   1185149.73746  22253774.612    22253781.074
  20787123.630     -648022.71449   -476340.53348  20787123.044    20787129.639
  22381326.732     9386386.39149   7306357.80746  22381326.590    22381334.288
  20616288.631    -2679971.83049  -2081675.32948  20616288.081    20616294.247
  20453248.076    -6888234.37849  -5355475.44648  20453247.681    20453252.739
  24081392.859     5900123.79849   4595752.49345  24081392.708    24081400.293
  23418544.781      267717.60249    211988.55646  23418544.369    23418552.059
  23875194.423    -7615189.48149  -5922888.59545  23875194.187    23875202.670
 03  3 27 23 18  0.0000000  0 10G 2G15G26G17G 6G23G18G29G16G 3
  24691184.364    -4742607.66749  -3683196.14445  24691183.809    24691193.682
  20849845.041    -7298942.37849  -5676633.87247  20849844.323    20849850.978
  22264272.671     1565930.22249   1228137.93946  22264272.804    22264279.271
  20788926.182     -638550.25449   -468959.40248  20788925.606    20788932.184
  22399116.175     9479870.14149   7379202.18646  22399116.045    22399123.768
  20618205.443    -2669898.85049  -2073826.24748  20618204.894    20618211.053
  20449541.664    -6907711.69149  -5370652.55948  20449541.257    20449546.309
  24095576.113     5974656.78349   4653830.07945  24095575.910    24095583.521
  23425671.728      305169.61349    241171.84246  23425671.325    23425679.068
  23857196.362    -7709769.77749  -5996587.44445  23857196.127    23857204.490
 03  3 27 23 18 30.0000000  0 10G 2G15G26G17G 6G23G18G29G16G 3
  24690446.986    -4746483.03449  -3686215.96945  24690446.359    24690456.298
  20842310.112    -7338538.65349  -5707488.10047  20842309.390    20842316.057
  22274881.025     1621677.20849   1271577.11646  22274881.121    22274887.588
  20790770.686     -628857.19149   -461406.37548  20790770.159    20790776.739
  22416961.495     9573647.31149   7452275.21646  22416961.320    22416969.051
  20620191.716    -2659461.03749  -2065692.88148  20620191.179    20620197.317
  20445914.824    -6926770.78549  -5385503.78948  20445914.418    20445919.473
  24109830.078     6049561.59049   4712197.38345  24109829.902    24109837.482
  23432881.292      343055.99049    270693.61046  23432880.924    23432888.712
  23839239.368    -7804133.71549  -6070117.66645  23839239.218    23839247.665
 03  3 27 23 19  0.0000000  0 10G 2G15G26G17G 6G23G18G29G16G 3
  24689790.071    -4749935.39849  -3688906.18545  24689789.504    24689799.356
  20834813.000    -7377936.10649  -5738187.40347  20834812.270    20834818.949
  22285599.132     1678001.24349   1315465.93246  22285599.251    22285605.725
  20792657.442     -618942.28949   -453680.48748  20792656.903    20792663.483
  22434862.299     9667716.22849   7525575.56446  22434862.128    22434869.913
  20622247.161    -2648659.52149  -2057276.11748  20622246.626    20622252.760
  20442367.511    -6945411.93149  -5400029.34348  20442367.114    20442372.177
  24124154.372     6124836.23849   4770852.88445  24124154.285    24124161.831
  23440173.176      381374.81349    300552.33945  23440172.786    23440180.627
  23821324.217    -7898278.49049  -6143477.14545  23821324.001    23821332.395
 03  3 27 23 19 30.0000000  0 10G 2G15G26G17G 6G23G18G29G16G 3
  24689213.472    -4752965.96549  -3691267.73445  24689212.863    24689222.724
  20827353.836    -7417134.25149  -5768731.39947  20827353.104    20827359.752
  22296426.614     1734899.77949   1359802.42946  22296426.695    22296433.201
  20794586.468     -608805.47349   -445781.67748  20794585.908    20794592.468
  22452818.117     9762074.33749   7599101.25246  22452817.948    22452825.694
  20624371.478    -2637496.17849  -2048577.40848  20624370.925    20624377.064
  20438899.550    -6963635.98249  -5414229.89148  20438899.155    20438904.204
  24138548.584     6200478.01549   4829794.47145  24138548.520    24138555.981
  23447546.889      420123.49149    330746.02745  23447546.551    23447554.339
  23803451.007    -7992201.82349  -6216664.06045  23803450.874    23803459.342
 03  3 27 23 20  0.0000000  0 10G 2G15G26G17G 6G23G18G29G16G 3
  24688717.155    -4755574.60149  -3693300.49745  24688716.487    24688726.366
  20819932.862    -7456131.58749  -5799118.92847  20819932.171    20819938.824
  22307363.135     1792371.51549   1404585.57146  22307363.274    22307369.738
  20796557.974     -598445.36149   -437708.87348  20796557.403    20796563.945
  22470828.710     9856720.28449   7672851.22246  22470828.549    22470836.364
  20626564.538    -2625971.68349  -2039597.28248  20626563.977    20626570.103
  20435510.971    -6981442.99149  -5428105.46948  20435510.590    20435515.647
  24153012.343     6276485.48049   4889020.97745  24153012.198    24153019.643
  23455002.069      459300.41149    361273.39645  23455001.720    23455009.513
  23785620.665    -8085900.85549  -6289676.20546  23785620.488    23785628.893
 03  3 27 23 20 30.0000000  0 10G 2G15G26G17G 6G23G18G29G16G 3
  24688300.809    -4757762.94849  -3695005.77945  24688300.115    24688310.024
  20812550.027    -7494928.43649  -5829350.22847  20812549.352    20812556.003
  22318408.256     1850413.57449   1449813.12346  22318408.338    22318414.736
  20798571.924     -587862.05749   -429462.15548  20798571.348    20798577.896
  22488893.525     9951651.20249   7746823.25146  22488893.343    22488901.183
  20628825.852    -2614088.32249  -2030337.52448  20628825.301    20628831.400
  20432201.535    -6998834.20349  -5441657.05248  20432201.151    20432206.208
  24167545.055     6352855.35449   4948529.89745  24167544.917    24167552.434
  23462538.198      498902.41949    392132.02145  23462537.783    23462545.680
  23767833.223    -8179374.09049  -6362512.40346  23767833.011    23767841.448
 03  3 27 23 21  0.0000000  0 10G 2G15G26G17G 6G23G18G29G16G 3
  24687964.434    -4759530.67449  -3696383.30345  24687963.718    24687973.682
  20805205.679    -7533523.19549  -5859424.05547  20805205.016    20805211.672
  22329561.609     1909024.75249   1495484.13446  22329561.696    22329568.121
  20800628.557     -577054.45549   -421040.65648  20800627.955    20800634.502
  22507012.347    10046865.67349   7821016.23546  22507012.159    22507020.029
  20631155.380    -2601846.71649  -2020798.60848  20631154.809    20631160.913
  20428971.199    -7015809.76349  -5454884.74648  20428970.798    20428975.856
  24182146.435     6429586.14849   5008320.01845  24182146.338    24182154.030
  23470155.007      538928.46249    423321.04245  23470154.581    23470162.468
  23750089.462    -8272617.88549  -6435169.81246  23750089.285    23750097.724
 03  3 27 23 21 30.0000000  0 10G 2G15G26G17G 6G23G18G29G16G 3
  24687707.876    -4760879.17949  -3697434.14945  24687707.156    24687717.167
  20797899.872    -7571915.39249  -5889340.04347  20797899.204    20797905.839
  22340822.754     1968202.40649   1541596.55946  22340822.850    22340829.236
  20802727.857     -566022.36649   -412444.23848  20802727.292    20802733.835
  22525184.635    10142361.20349   7895428.21746  22525184.449    22525192.329
  20633552.682    -2589248.78349  -2010982.03848  20633552.109    20633558.230
  20425819.790    -7032370.44049  -5467789.15648  20425819.380    20425824.422
  24196816.049     6506674.99549   5068389.17645  24196816.003    24196823.653
  23477851.863      579375.39649    454838.04645  23477851.441    23477859.322
  23732389.752    -8365630.32849  -6507646.94946  23732389.549    23732397.921
 03  3 27 23 22  0.0000000  0 10G 2G15G26G17G 6G23G18G29G16G 3
  24687531.005    -4761808.91249  -3698158.68945  24687530.289    24687540.318
  20790632.786    -7610104.33549  -5919097.65147  20790632.115    20790638.725
  22352191.320     2027944.40949   1588148.73846  22352191.380    22352197.829
  20804870.083     -554765.04749   -403672.31448  20804869.518    20804876.081
  22543410.030    10238135.88249   7970057.72046  22543409.872    22543417.786
  20636017.526    -2576295.87549  -2000888.86748  20636016.963    20636023.089
  20422747.211    -7048516.98049  -5480370.86148  20422746.797    20422751.834
  24211553.338     6584119.76849   5128735.67945  24211553.320    24211560.843
  23485628.412      620241.16649    486681.41245  23485628.048    23485635.878
  23714734.477    -8458408.87949  -6579941.84646  23714734.291    23714742.676
 03  3 27 23 22 30.0000000  0 10G 2G15G26G17G 6G23G18G29G16G 3
  24687433.614    -4762320.90049  -3698557.70745  24687432.896    24687442.987
  20783404.556    -7648089.15149  -5948696.20147  20783403.859    20783410.434
  22363666.869     2088248.50649   1635138.89446  22363666.935    22363673.353
  20807055.265     -543281.79849   -394724.34448  20807054.696    20807061.264
  22561688.077    10334187.27249   8044902.84946  22561687.978    22561695.878
  20638549.596    -2562989.74449  -1990520.45348  20638549.030    20638555.163
  20419753.225    -7064250.41449  -5492630.66948  20419752.819    20419757.858
  24226358.018     6661918.05349   5189357.65945  24226357.941    24226365.291
  23493484.160      661523.01849    518848.98245  23493483.780    23493491.638
  23697124.120    -8550951.39049  -6652052.81445  23697123.903    23697132.343
 03  3 27 23 23  0.0000000  0 10G 2G15G26G17G 6G23G18G29G16G 3
  24687415.594    -4762415.88849  -3698631.79845  24687414.978    24687424.989
  20776215.297    -7685868.94049  -5978134.98547  20776214.576    20776221.147
  22375248.906     2149112.56249   1682565.40446  22375248.997    22375255.464
  20809283.615     -531571.83249   -385599.70747  20809283.063    20809289.624
  22580018.418    10430513.43149   8119962.07946  22580018.289    22580026.249
  20641148.624    -2549331.69749  -1979877.81548  20641148.051    20641154.213
  20416837.803    -7079570.98149  -5504568.75848  20416837.408    20416842.428
  24241229.454     6740067.59149   5250253.33445  24241229.366    24241236.814
  23501418.759      703218.99649    551339.26045  23501418.326    23501426.233
  23679559.210    -8643255.19549  -6723977.77345  23679558.953    23679567.384
 03  3 27 23 23 30.0000000  0 10G 2G15G26G17G 6G23G18G29G16G 3
  24687476.750    -4762094.45549  -3698381.38745  24687476.176    24687486.249
  20769065.223    -7723442.84249  -6007413.34447  20769064.516    20769071.085
  22386937.217     2210534.80649   1730426.84946  22386937.296    22386943.765
  20811555.240     -519634.50549   -376297.91047  20811554.661    20811561.196
  22598400.754    10527112.44549   8195233.91446  22598400.593    22598408.570
  20643814.406    -2535323.01049  -1968961.95248  20643813.835    20643819.982
  20414000.889    -7094479.06249  -5516185.43548  20414000.492    20414005.517
  24256167.253     6818566.25049   5311421.05445  24256166.985    24256174.489
  23509431.712      745327.11249    584150.67745  23509431.269    23509439.193
  23662040.275    -8735317.53449  -6795714.59245  23662040.101    23662048.498
 03  3 27 23 24  0.0000000  0 10G 2G15G26G17G 6G23G18G29G16G 3
  24687617.024    -4761357.68649  -3697807.36045  24687616.518    24687626.566
  20761954.432    -7760810.29149  -6036530.82647  20761953.719    20761960.310
  22398731.167     2272512.49749   1778721.11846  22398731.221    22398737.774
  20813870.222     -507469.45949   -366818.66247  20813869.638    20813876.172
  22616834.506    10623982.12949   8270716.67146  22616834.351    22616842.364
  20646546.529    -2520965.55349  -1957774.32448  20646545.984    20646552.105
  20411242.208    -7108975.79649  -5527481.58248  20411241.821    20411246.856
  24271171.174     6897411.53649   5372858.87445  24271170.927    24271178.327
  23517522.531      787844.44649    617280.97545  23517522.098    23517530.033
  23644567.658    -8827136.24549  -6867261.55545  23644567.407    23644575.800
 03  3 27 23 24 30.0000000  0 10G 2G15G26G17G 6G23G18G29G16G 3
  24687836.231    -4760206.16849  -3696910.14845  24687835.717    24687845.781
  20754883.096    -7797970.40649  -6065486.75047  20754882.374    20754888.973
  22410630.518     2335043.66349   1827446.66846  22410630.583    22410637.090
  20816228.638     -495076.03549   -357161.46147  20816228.035    20816234.588
  22635319.357    10721120.15449   8346408.52546  22635319.224    22635327.250
  20649344.770    -2506260.65849  -1946315.96148  20649344.216    20649350.349
  20408561.694    -7123061.99949  -5538457.83448  20408561.317    20408566.348
  24286240.498     6976600.73349   5434564.68245  24286240.295    24286247.651
  23525690.855      830768.85549    650728.45745  23525690.413    23525698.366
  23627141.841    -8918708.79849  -6938616.71745  23627141.660    23627149.930
 03  3 27 23 25  0.0000000  0 10G 2G15G26G17G 6G23G18G29G16G 3
  24688134.145    -4758640.66749  -3695690.34745  24688133.641    24688143.741
  20747851.347    -7834922.49949  -6094280.58047  20747850.612    20747857.215
  22422634.727     2398126.15749   1876601.81146  22422634.783    22422641.309
  20818630.745     -482452.92149   -347325.27747  20818630.132    20818636.698
  22653854.869    10818524.50049   8422307.88646  22653854.753    22653862.802
  20652208.864    -2491209.73049  -1934587.96548  20652208.314    20652214.453
  20405959.217    -7136737.99149  -5549114.44348  20405958.829    20405963.867
  24301374.814     7056132.03449   5496537.05945  24301374.618    24301381.971
  23533936.178      874097.84749    684491.21145  23533935.735    23533943.748
  23609763.450    -9010032.48049  -7009777.94745  23609763.261    23609771.617
 03  3 27 23 25 30.0000000  0 10G 2G15G26G17G 6G23G18G29G16G 3
  24688510.727    -4756662.08149  -3694148.66945  24688510.130    24688520.426
  20740859.328    -7871665.73849  -6122911.65947  20740858.592    20740865.176
  22434743.361     2461757.59449   1926184.71546  22434743.430    22434750.024
  20821076.514     -469600.05949   -337310.06947  20821075.929    20821082.514
  22672440.677    10916193.02049   8498413.07946  22672440.536    22672448.629
  20655138.501    -2475814.32149  -1922591.53748  20655137.956    20655144.105
  20403434.649    -7150004.65149  -5559452.08648  20403434.256    20403439.286
  24316573.870     7136003.00249   5558774.09945  24316573.676    24316580.978
  23542258.057      917829.26249    718567.52945  23542257.664    23542265.628
  23592432.905    -9101104.94049  -7080743.44045  23592432.669    23592440.986
 03  3 27 23 26  0.0000000  0 10G 2G15G26G17G 6G23G18G29G16G 3
  24688965.777    -4754271.09249  -3692285.64245  24688965.175    24688975.418
  20733907.276    -7908198.88149  -6151379.03647  20733906.565    20733913.141
  22446956.146     2525935.93149   1976193.77146  22446956.236    22446962.787
  20823566.260     -456516.67949   -327115.24147  20823565.655    20823572.235
  22691076.371    11014123.71149   8574722.56646  22691076.234    22691084.338
  20658133.471    -2460075.75749  -1910327.71948  20658132.912    20658139.062
  20400987.905    -7162862.54749  -5569471.21848  20400987.500    20400992.531
  24331837.052     7216211.27049   5621273.98245  24331836.820    24331844.129
  23550656.083      961960.77349    752955.61345  23550655.750    23550663.773
  23575150.577    -9191923.47249  -7151511.04545  23575150.453    23575158.647
 03  3 27 23 26 30.0000000  0 10G 2G15G26G17G 6G23G18G29G16G 3
  24689498.967    -4751469.43849  -3690102.59945  24689498.286    24689508.547
  20726995.283    -7944521.72349  -6179682.53647  20726994.580    20727001.152
  22459272.402     2590658.18349   2026626.65446  22459272.499    22459279.045
  20826099.835     -443202.45849   -316740.53447  20826099.271    20826105.847
  22709761.424    11112313.71249   8651234.13146  22709761.279    22709769.399
  20661193.277    -2443996.22249  -1897798.20648  20661192.714    20661198.860
  20398618.632    -7175313.01949  -5579172.87448  20398618.250    20398623.273
  24347163.869     7296754.05349   5684034.50745  24347163.659    24347171.072
  23559129.670     1006489.28849    787653.04545  23559129.314    23559137.325
  23557917.050    -9282486.18949  -7222079.30845  23557916.844    23557925.050
 03  3 27 23 27  0.0000000  0 10G 2G15G26G17G 6G23G18G29G16G 3
  24690110.219    -4748257.70049  -3687600.01845  24690109.512    24690119.858
  20720123.482    -7980633.14049  -6207821.29647  20720122.777    20720129.381
  22471691.773     2655922.25449   2077481.74946  22471691.871    22471698.456
  20828677.498     -429656.88649   -306185.55247  20828676.907    20828683.494
  22728495.401    11210761.22849   8727946.35946  22728495.290    22728503.498
  20664317.774    -2427576.94149  -1885003.96148  20664317.221    20664323.361
  20396326.828    -7187356.61949  -5588557.48948  20396326.427    20396331.446
  24362553.916     7377628.97849   5747053.87945  24362553.705    24362561.071
  23567678.395     1051412.74249    822658.22545  23567678.006    23567686.160
  23540732.670    -9372790.43849  -7292446.18245  23540732.450    23540740.747
 03  3 27 23 27 30.0000000  0 10G 2G15G26G17G 6G23G18G29G16G 3
  24690799.389    -4744636.49649  -3684778.39245  24690798.726    24690809.024
  20713292.037    -8016532.16249  -6235794.54847  20713291.377    20713297.994
  22484213.913     2721726.13949   2128757.46146  22484213.993    22484220.567
  20831299.349     -415878.85049   -295449.43247  20831298.762    20831305.388
  22747278.091    11309464.31849   8804857.73746  22747277.957    22747286.178
  20667506.647    -2410819.30449  -1871946.05848  20667506.073    20667512.223
  20394112.361    -7198993.79349  -5597625.40848  20394111.950    20394116.963
  24378006.819     7458833.92849   5810330.36645  24378006.587    24378014.231
  23576301.798     1096728.65049    857969.21145  23576301.416    23576309.631
  23523598.066    -9462833.51449  -7362609.55645  23523597.773    23523605.923
 03  3 27 23 28  0.0000000  0 10G 2G15G26G17G 6G23G18G29G16G 3
  24691566.240    -4740606.84749  -3681638.49645  24691565.565    24691575.977
  20706501.234    -8052218.11249  -6263601.77047  20706500.578    20706507.179
  22496838.207     2788067.38749   2180451.89346  22496838.302    22496844.949
  20833965.561     -401867.80149   -284531.74047  20833964.976    20833971.626
  22766108.974    11408420.69649   8881966.47246  22766108.781    22766117.074
  20670759.630    -2393724.73949  -1858625.62048  20670759.071    20670765.213
  20391975.053    -7210225.46949  -5606377.35248  20391974.630    20391979.633
  24393522.075     7540366.68449   5873862.31845  24393521.887    24393529.308
  23584999.439     1142434.86549    893584.32845  23584999.104    23585007.321
  23506513.547    -9552612.70849  -7432567.29845  23506513.349    23506521.504
 03  3 27 23 28 30.0000000  0 10G 2G15G26G17G 6G23G18G29G16G 3
  24692410.649    -4736169.69349  -3678181.04945  24692410.071    24692420.413
  20699751.196    -8087689.88349  -6291242.09747  20699750.531    20699757.098
  22509564.360     2854943.46449   2232563.08246  22509564.423    22509571.105
  20836676.212     -387623.33049   -273432.16647  20836675.630    20836682.296
  22784987.605    11507628.06949   8959270.79546  22784987.391    22784995.719
  20674076.384    -2376294.98949  -1845043.99148  20674075.825    20674081.974
  20389914.687    -7221052.58849  -5614814.05648  20389914.276    20389919.284
  24409099.144     7622224.59349   5937647.60645  24409098.982    24409106.532
  23593770.872     1188528.59449    929501.39445  23593770.552    23593778.805
  23489479.708    -9642126.16549  -7502317.96645  23489479.491    23489487.503
 03  3 27 23 29  0.0000000  0 10G 2G15G26G17G 6G23G18G29G16G 3
  24693332.336    -4731326.25249  -3674407.02445  24693331.791    24693342.190
  20693041.995    -8122946.96049  -6318715.13047  20693041.326    20693047.871
  22522391.759     2922352.01849   2285089.19546  22522391.853    22522398.593
  20839431.489     -373144.31349   -262149.82347  20839430.892    20839437.546
  22803913.528    11607084.15449   9036768.93046  22803913.339    22803921.671
  20677456.632    -2358531.66549  -1831202.44448  20677456.055    20677462.227
  20387931.215    -7231475.71649  -5622935.96648  20387930.819    20387935.811
  24424737.735     7704405.16749   6001684.37445  24424737.616    24424745.009
  23602615.527     1235007.06149    965718.27045  23602615.200    23602623.453
  23472496.920    -9731371.24249  -7571859.51445  23472496.719    23472504.701
 03  3 27 23 29 30.0000000  0 11G14G 2G15G26G17G 6G23G18G29G16G 3
  24660701.384    -5457266.85449  -3964963.26145  24660700.734    24660716.514
  24694330.977    -4726078.65249  -3670318.06945  24694330.391    24694340.752
  20686373.576    -8157989.75049  -6346021.19347  20686372.882    20686379.408
  22535319.902     2990289.36249   2338027.32746  22535319.943    22535326.683
  20842231.214     -358431.65049   -250685.42447  20842230.614    20842237.249
  22822886.161    11706785.48349   9114458.15646  22822885.965    22822894.308
  20680899.851    -2340437.42449  -1817103.03748  20680899.271    20680905.430
  20386024.174    -7241497.28449  -5630744.97248  20386023.779    20386028.781
  24440436.911     7786905.00749   6065969.89545  24440436.788    24440444.359
  23611532.686     1281866.88349   1002232.28945  23611532.366    23611540.677
  23455565.428    -9820346.40449  -7641190.73346  23455565.300    23455573.206
 03  3 27 23 30  0.0000000  0 11G14G 2G15G26G17G 6G23G18G29G16G 3
  24639118.417    -5570682.48649  -4053338.42245  24639117.954    24639133.470
  24695405.747    -4720430.99749  -3665917.38945  24695405.237    24695415.590
  20679745.584    -8192820.04949  -6373161.67747  20679744.871    20679751.418
  22548347.525     3058750.04349   2391373.26846  22548347.564    22548354.355
  20845074.956     -343487.70849   -239040.80647  20845074.395    20845081.014
  22841904.509    11806726.90649   9192334.46346  22841904.269    22841912.675
  20684405.178    -2322016.79949  -1802749.30448  20684404.605    20684410.760
  20384192.900    -7251120.76049  -5638243.77448  20384192.497    20384197.508
  24456195.799     7869718.56749   6130499.85945  24456195.638    24456203.395
  23620521.425     1329102.55849   1039039.18345  23620521.103    23620529.467
  23438685.332    -9909052.13949  -7710312.02546  23438685.136    23438692.986
 03  3 27 23 30 30.0000000  0 11G14G 2G15G26G17G 6G23G18G29G16G 3
  24617533.746    -5684107.77449  -4141721.11045  24617533.199    24617548.622
  24696557.828    -4714377.24749  -3661200.26845  24696557.339    24696567.713
  20673159.451    -8227430.00449  -6400130.46347  20673158.790    20673165.363
  22561475.706     3127738.81749   2445130.70846  22561475.735    22561482.521
  20847964.193     -328304.70249   -227209.90447  20847963.615    20847970.259
  22860969.394    11906913.27549   9270401.60846  22860969.171    22860977.598
  20687973.657    -2303264.35349  -1788137.00848  20687973.094    20687979.245
  20382438.495    -7260340.07649  -5645427.64948  20382438.102    20382443.094
  24472015.298     7952850.42949   6195277.84845  24472015.016    24472022.866
  23629582.574     1376718.59249   1076142.45245  23629582.240    23629590.595
  23421858.166    -9997479.07349  -7779216.06046  23421857.955    23421865.831
 03  3 27 23 31  0.0000000  0 11G14G 2G15G26G17G 6G23G18G29G16G 3
  24595947.730    -5797540.92749  -4230109.93045  24595947.130    24595962.259
  24697786.726    -4707919.58349  -3656168.41845  24697786.218    24697796.593
  20666615.285    -8261819.81349  -6426927.70647  20666614.640    20666621.217
  22574703.673     3197252.06449   2499296.82946  22574703.727    22574710.436
  20850898.850     -312883.03849   -215193.03447  20850898.273    20850904.916
  22880080.299    12007341.23249   9348656.99346  22880080.090    22880088.497
  20691604.744    -2284182.81349  -1773268.28248  20691604.190    20691610.345
  20380760.691    -7269156.98249  -5652297.95748  20380760.283    20380765.268
  24487894.696     8036297.09649   6260301.14645  24487894.454    24487902.440
  23638715.383     1424711.14849   1113539.12945  23638715.078    23638723.387
  23405084.349   -10085625.93649  -7847901.86246  23405084.127    23405092.015
 03  3 27 23 31 30.0000000  0 11G14G 2G15G26G17G 6G23G18G29G16G 3
  24574360.517    -5910980.61549  -4318503.84845  24574359.995    24574374.773
  24699092.133    -4701059.93649  -3650823.33745  24699091.585    24699101.967
  20660112.955    -8295989.68349  -6453553.56447  20660112.322    20660118.891
  22588030.798     3267286.34749   2553868.95146  22588030.862    22588037.530
  20853878.863     -297223.09249   -202990.49047  20853878.290    20853884.921
  22899236.610    12108007.76449   9427098.32146  22899236.458    22899244.820
  20695298.022    -2264774.54149  -1758144.95648  20695297.474    20695303.627
  20379159.078    -7277573.51349  -5658856.28248  20379158.692    20379163.650
  24503833.254     8120055.12549   6325567.03045  24503833.099    24503841.092
  23647919.157     1473076.95549   1151226.64745  23647918.826    23647927.217
  23388364.208   -10173491.02349  -7916368.09946  23388363.923    23388371.840
 03  3 27 23 32  0.0000000  0 11G14G 2G15G26G17G 6G23G18G29G16G 3
  24552772.279    -6024424.57549  -4406901.10045  24552771.931    24552786.413
  24700473.772    -4693799.70849  -3645166.10445  24700473.218    24700483.671
  20653652.624    -8329939.09549  -6480007.63747  20653651.964    20653658.510
  22601456.540     3337838.78949   2608844.82546  22601456.607    22601463.300
  20856904.283     -281324.32949   -190601.85047  20856903.726    20856910.350
  22918437.882    12208910.37449   9505723.61446  22918437.685    22918446.086
  20699053.075    -2245041.62949  -1742768.66048  20699052.524    20699058.670
  20377633.453    -7285590.66149  -5665103.39848  20377633.058    20377638.019
  24519830.641     8204122.01349   6391073.60745  24519830.565    24519838.625
  23657193.445     1521812.98049   1189202.64245  23657193.076    23657201.520
  23371697.928   -10261072.40549  -7984613.26346  23371697.721    23371705.605
 03  3 27 23 32 30.0000000  0 11G14G 2G15G26G17G 6G23G18G29G16G 3
  24531183.860    -6137870.37349  -4495299.80345  24531183.396    24531197.955
  24701931.473    -4686140.11149  -3639197.68145  24701930.869    24701941.375
  20647234.406    -8363667.22849  -6506289.28847  20647233.728    20647240.263
  22614980.385     3408906.90149   2664222.51946  22614980.405    22614987.156
  20859975.267     -265186.49449   -178026.92647  20859974.680    20859981.303
  22937683.484    12310046.34449   9584530.72146  22937683.301    22937691.714
  20702869.584    -2224985.67249  -1727140.64548  20702869.022    20702875.191
  20376183.631    -7293209.52549  -5671040.16848  20376183.232    20376188.201
  24535886.233     8288494.88149   6456818.57945  24535886.020    24535894.356
  23666537.609     1570916.42749   1227464.93745  23666537.247    23666545.706
  23355086.125   -10348367.57549  -8052635.40446  23355085.901    23355093.858
 03  3 27 23 33  0.0000000  0 11G14G 2G15G26G17G 6G23G18G29G16G 3
  24509595.676    -6251314.88049  -4583697.51145  24509595.201    24509609.677
  24703464.967    -4678081.90149  -3632918.64945  24703464.338    24703474.825
  20640858.455    -8397172.85749  -6532397.55747  20640857.792    20640864.324
  22628601.887     3480488.22349   2720000.13446  22628601.945    22628608.654
  20863091.895     -248808.33449   -165264.72847  20863091.332    20863097.973
  22956973.203    12411413.83549   9663518.22946  22956973.008    22956981.444
  20706747.356    -2204607.83649  -1711261.80948  20706746.798    20706752.949
  20374809.488    -7300430.73849  -5676667.07948  20374809.093    20374814.044
  24551999.615     8373171.71149   6522800.43645  24551999.484    24552007.822
  23675951.303     1620385.11549   1266011.83445  23675950.890    23675959.359
  23338529.295   -10435373.69349  -8120432.29446  23338529.062    23338537.036
 03  3 27 23 33 30.0000000  0 11G14G 2G15G26G17G 6G23G18G29G16G 3
  24488007.938    -6364756.31149  -4672092.85245  24488007.457    24488021.925
  24705073.863    -4669627.25849  -3626330.72245  24705073.253    24705083.767
  20634524.832    -8430455.95749  -6558332.42847  20634524.196    20634530.737
  22642320.389     3552579.43249   2776175.04946  22642320.467    22642327.211
  20866254.222     -232190.16049   -152315.51247  20866253.653    20866260.305
  22976306.377    12513009.77949   9742683.76646  22976306.214    22976314.639
  20710685.898    -2183910.71149  -1695134.18248  20710685.331    20710691.492
  20373510.694    -7307255.92449  -5681985.39748  20373510.302    20373515.252
  24568170.411     8458149.24749   6589016.61445  24568170.190    24568178.597
  23685433.809     1670215.50449   1304840.58545  23685433.386    23685442.003
  23322027.882   -10522089.14849  -8188002.71846  23322027.596    23322035.584
 03  3 27 23 34  0.0000000  0 11G14G 2G15G26G17G 6G23G18G29G16G 3
  24466421.420    -6478191.63049  -4760483.44045  24466421.000    24466435.474
  24706758.158    -4660776.78249  -3619434.34945  24706757.508    24706768.072
  20628233.883    -8463515.31749  -6584092.95948  20628233.231    20628239.770
  22656135.607     3625178.61549   2832745.79846  22656135.673    22656142.415
  20869462.473     -215330.87349   -139178.41647  20869461.902    20869468.540
  22995682.732    12614832.47249   9822025.98046  22995682.550    22995690.978
  20714684.977    -2162895.37349  -1678758.59848  20714684.412    20714690.574
  20372287.159    -7313685.61449  -5686995.53748  20372286.759    20372291.714
  24584398.011     8543425.44449   6655465.53645  24584397.865    24584406.174
  23694984.689     1720405.46849   1343949.51145  23694984.244    23694992.921
  23305582.298   -10608511.02449  -8255344.36746  23305582.002    23305590.006
 03  3 27 23 34 30.0000000  0 11G14G 2G15G26G17G 6G23G18G29G16G 3
  24444836.663    -6591618.51149  -4848867.47445  24444836.173    24444850.499
  24708517.460    -4651531.93549  -3612230.67245  24708516.800    24708527.392
  20621985.634    -8496350.13649  -6609678.51748  20621984.957    20621991.486
  22670046.925     3698282.88849   2889710.11846  22670046.963    22670053.782
  20872716.741     -198229.67549   -125852.81847  20872716.159    20872722.792
  23015101.704    12716879.37249   9901542.91346  23015101.546    23015110.007
  20718744.279    -2141563.56749  -1662136.41348  20718743.712    20718749.904
  20371138.700    -7319720.88249  -5691698.33048  20371138.284    20371143.237
  24600681.980     8628997.78349   6722145.16145  24600681.952    24600690.339
  23704603.578     1770952.33149   1383336.54645  23704603.124    23704611.835
  23289193.062   -10694636.92349  -8322455.37946  23289192.738    23289200.698
 03  3 27 23 35  0.0000000  0 11G14G 2G15G26G17G 6G23G18G29G16G 3
  24423254.081    -6705033.91949  -4937242.57945  24423253.475    24423267.590
  24710351.563    -4641893.74349  -3604720.49245  24710350.910    24710361.708
  20615780.329    -8528959.19249  -6635088.16248  20615779.673    20615786.199
  22684053.901     3771889.91749   2947066.19546  22684053.966    22684060.719
  20876017.059     -180886.40449   -112338.59847  20876016.485    20876023.124
  23034562.987    12819148.46149   9981232.96446  23034562.814    23034571.285
  20722863.539    -2119916.70849  -1645268.73748  20722862.971    20722869.147
  20370065.086    -7325362.72149  -5696094.56048  20370064.658    20370069.613
  24617022.015     8714863.99249   6789053.86145  24617021.930    24617030.103
  23714289.842     1821853.43749   1422999.61245  23714289.358    23714298.129
  23272860.577   -10780464.34849  -8389333.82346  23272860.284    23272868.230
 03  3 27 23 35 30.0000000  0 11G14G 2G15G26G17G 6G23G18G29G16G 3
  24401673.765    -6818435.80649  -5025607.16845  24401673.344    24401687.328
  24712260.347    -4631863.61149  -3596904.91645  24712259.718    24712270.608
  20609618.072    -8561342.00749  -6660321.50848  20609617.409    20609623.950
  22698155.985     3845996.48149   3004811.53546  22698156.043    22698162.772
  20879363.509     -163300.58249    -98635.37047  20879362.938    20879369.617
  23054066.022    12921636.91049  10061093.95546  23054065.842    23054074.353
  20727042.385    -2097956.72649  -1628157.06248  20727041.828    20727047.996
  20369066.159    -7330612.04049  -5700184.92948  20369065.749    20369070.685
  24633417.173     8801020.89949   6856189.03245  24633417.010    24633425.354
  23724042.909     1873105.83249   1462936.40345  23724042.527    23724051.283
  23256585.260   -10865991.26749  -8455978.10246  23256584.931    23256592.911
 03  3 27 23 36  0.0000000  0 11G14G 2G15G26G17G 6G23G18G29G16G 3
  24380096.910    -6931821.11149  -5113958.85245  24380096.551    24380110.234
  24714243.542    -4621442.37949  -3588784.58245  24714242.825    24714253.754
  20603499.141    -8593497.36449  -6685377.62348  20603498.455    20603504.984
  22712352.739     3920600.46749   3062944.45546  22712352.735    22712359.433
  20882756.325     -145471.21749    -84742.37747  20882755.769    20882762.409
  23073610.396    13024342.86549  10141124.41146  23073610.252    23073618.810
  20731280.585    -2075684.89449  -1610802.38848  20731280.013    20731286.186
  20368141.765    -7335469.68549  -5703970.10448  20368141.349    20368146.310
  24649867.370     8887466.63649   6923549.26445  24649867.222    24649875.336
  23733862.446     1924707.15849   1503145.09245  23733862.099    23733870.826
  23240367.760   -10951214.65349  -8522385.87746  23240367.409    23240375.450
 03  3 27 23 36 30.0000000  0 11G14G 2G15G26G17G 6G23G18G29G16G 3
  24358523.803    -7045186.82849  -5202295.26045  24358523.286    24358536.871
  24716300.888    -4610631.19349  -3580360.38945  24716300.201    24716311.176
  20597423.650    -8625424.16649  -6710255.63548  20597422.961    20597429.463
  22726643.611     3995699.43149   3121463.08246  22726643.622    22726650.309
  20886195.760     -127397.01949    -70658.59947  20886195.188    20886201.829
  23093195.780    13127264.17949  10221322.68746  23093195.643    23093204.229
  20735577.851    -2053102.69549  -1593205.86648  20735577.269    20735583.439
  20367291.821    -7339936.17049  -5707450.47548  20367291.408    20367296.369
  24666372.120     8974198.98449   6991132.86645  24666371.916    24666380.004
  23743747.914     1976654.99349   1543623.78245  23743747.485    23743756.302
  23224208.413   -11036131.87449  -8588555.07046  23224208.135    23224216.120
 03  3 27 23 37  0.0000000  0 11G14G 2G15G26G17G 6G23G18G29G16G 3
  24336954.694    -7158531.11249  -5290615.00545  24336954.188    24336967.714
  24718432.097    -4599431.89549  -3571633.75445  24718431.475    24718442.413
  20591391.800    -8657121.81349  -6734955.09548  20591391.107    20591397.570
  22741028.112     4071290.22349   3180364.95846  22741028.124    22741034.829
  20889681.714     -109078.17949    -56384.19847  20889681.145    20889687.829
  23112821.642    13230398.09649  10301686.61846  23112821.516    23112830.157
  20739933.737    -2030212.28949  -1575369.18948  20739933.163    20739939.327
  20366515.963    -7344013.21949  -5710627.39248  20366515.545    20366520.501
  24682930.738     9061214.90749   7058937.40945  24682930.543    24682938.604
  23753698.681     2028946.09449   1584369.95445  23753698.287    23753707.183
  23208107.813   -11120740.94049  -8654484.15546  23208107.542    23208115.508
 03  3 27 23 37 30.0000000  0 11G14G 2G15G26G17G 6G23G18G29G16G 3
  24315390.225    -7271850.92049  -5378915.67945  24315389.786    24315403.116
  24720636.985    -4587845.47949  -3562605.48745  24720636.409    24720647.272
  20585403.739    -8688589.18249  -6759475.11448  20585403.062    20585409.499
  22755505.791     4147370.50449   3239648.25346  22755505.751    22755512.456
  20893214.537      -90513.31749    -41918.08747  20893213.949    20893220.622
  23132487.517    13333742.61549  10382214.63946  23132487.432    23132496.100
  20744348.057    -2007015.03549  -1557293.40948  20744347.487    20744353.655
  20365814.097    -7347701.50049  -5713501.37548  20365813.701    20365818.646
  24699542.936     9148512.02549   7126961.11745  24699542.902    24699550.561
  23763714.370     2081578.15049   1625381.79745  23763713.893    23763722.847
  23192066.341   -11205039.17649  -8720171.02946  23192066.077    23192073.943
 03  3 27 23 38  0.0000000  0 11G14G 2G15G26G17G 6G23G18G29G16G 3
  24293830.953    -7385143.74149  -5467195.34445  24293830.462    24293843.770
  24722915.292    -4575873.54749  -3553276.82045  24722914.602    24722925.527
  20579459.661    -8719825.57849  -6783815.15448  20579458.987    20579465.418
  22770075.980     4223937.44949   3299310.75846  22770075.984    22770082.697
  20896794.176      -71702.13949    -27260.04347  20896793.591    20896800.260
  23152193.057    13437295.31549  10462904.90446  23152193.000    23152201.626
  20748820.412    -1983512.59649  -1538979.81548  20748819.841    20748826.009
  20365186.004    -7351002.06749  -5716073.23848  20365185.605    20365190.554
  24716208.080     9236087.99849   7195202.06945  24716207.975    24716215.865
  23773794.309     2134548.15749   1666656.98545  23773793.875    23773802.830
  23176084.460   -11289024.31749  -8785613.93046  23176084.191    23176092.019
 03  3 27 23 38 30.0000000  0 11G14G 2G15G26G17G 6G23G18G29G16G 3
  24272277.301    -7498406.69049  -5555451.74745  24272276.834    24272289.875
  24725266.759    -4563517.07349  -3543648.51745  24725266.055    24725276.945
  20573559.756    -8750829.73349  -6807974.22848  20573559.081    20573565.530
  22784738.347     4300988.42649   3359350.42346  22784738.324    22784745.003
  20900420.799      -52644.01249    -12409.56947  20900420.230    20900426.904
  23171937.842    13541053.88949  10543755.57946  23171937.661    23171946.414
  20753350.575    -1959706.47949  -1520429.59248  20753349.985    20753356.165
  20364631.557    -7353915.76849  -5718343.65048  20364631.129    20364636.073
  24732925.927     9323940.32949   7263658.37145  24732925.802    24732933.645
  23783938.088     2187853.61649   1708193.56545  23783937.642    23783946.722
  23160162.650   -11372693.74249  -8850810.83146  23160162.394    23160170.111
 03  3 27 23 39  0.0000000  0 11G14G 2G15G26G17G 6G23G18G29G16G 3
  24250729.989    -7611637.05249  -5643682.74145  24250729.360    24250742.452
  24727691.208    -4550777.33049  -3533721.55445  24727690.436    24727701.378
  20567704.221    -8781600.91649  -6831951.76748  20567703.535    20567709.967
  22799492.322     4378520.87449   3419765.25946  22799492.290    22799498.999
  20904094.632      -33338.06649      2634.01047  20904094.057    20904100.727
  23191721.269    13645016.10749  10624764.94646  23191721.125    23191729.910
  20757938.231    -1935598.21649  -1501643.92948  20757937.649    20757943.823
  20364150.505    -7356443.65549  -5720313.42548  20364150.092    20364155.023
  24749695.856     9412066.67949   7332328.21745  24749695.732    24749703.215
  23794145.225     2241491.83549   1749989.43445  23794144.696    23794153.866
  23144301.427   -11456045.02149  -8915759.82746  23144301.184    23144308.835
 03  3 27 23 39 30.0000000  0 11G14G 2G15G26G17G 6G23G18G29G16G 3
  24229189.193    -7724832.38349  -5731886.46845  24229188.742    24229201.355
  24730188.228    -4537655.62449  -3523496.97145  24730187.447    24730198.475
  20561893.220    -8812138.02049  -6855746.90248  20561892.508    20561898.923
  22814337.450     4456532.08149   3480553.16346  22814337.452    22814344.120
  20907815.770      -13783.55449     17871.27947  20907815.181    20907821.835
  23211543.078    13749179.77949  10705931.28746  23211542.913    23211551.748
  20762583.045    -1911189.43149  -1482624.09748  20762582.493    20762588.656
  20363742.660    -7358586.84949  -5721983.43948  20363742.255    20363747.179
  24766517.537     9500464.30449   7401209.41545  24766517.257    24766525.069
  23804415.175     2295460.23449   1792042.57445  23804414.686    23804423.872
  23128501.099   -11539075.72049  -8980459.02246  23128500.862    23128508.531
 03  3 27 23 40  0.0000000  0 11G14G 2G15G26G17G 6G23G18G29G16G 3
  24207655.603    -7837990.00849  -5820060.82045  24207655.260    24207667.753
  24732757.646    -4524153.54349  -3512975.97945  24732756.878    24732767.964
  20556126.848    -8842440.28449  -6879359.04648  20556126.150    20556132.588
  22829273.028     4535019.10149   3541711.83446  22829273.033    22829279.768
  20911584.252        6019.98949     33302.60047  20911583.682    20911590.338
  23231402.771    13853542.50349  10787252.71346  23231402.604    23231411.511
  20767284.718    -1886481.93049  -1463371.49748  20767284.158    20767290.327
  20363407.859    -7360346.14049  -5723354.30848  20363407.466    20363412.382
  24783390.238     9589130.81749   7470300.13945  24783390.055    24783397.878
  23814747.326     2349755.53249   1834350.44945  23814746.864    23814756.060
  23112762.300   -11621783.64149  -9044906.69446  23112762.068    23112769.735
 03  3 27 23 40 30.0000000  0 11G14G 2G15G26G17G 6G23G18G29G16G 3
  24186129.810    -7951107.00649  -5908203.50845  24186129.382    24186141.765
  24735399.246    -4510272.18449  -3502159.45845  24735398.520    24735409.562
  20550405.382    -8872506.72549  -6902787.43648  20550404.671    20550411.117
  22844298.628     4613979.32749   3603239.21446  22844298.701    22844305.464
  20915400.263       26073.09449     48928.38547  20915399.690    20915406.339
  23251299.904    13958101.93549  10868727.42546  23251299.730    23251308.692
  20772042.984    -1861477.20449  -1443887.29548  20772042.404    20772048.581
  20363145.952    -7361722.55449  -5724426.83348  20363145.538    20363150.458
  24800313.783     9678063.64149   7539598.37645  24800313.550    24800321.413
  23825141.163     2404375.33549   1876911.18345  23825140.738    23825149.998
  23097085.391   -11704165.99649  -9109100.67746  23097085.171    23097092.840
 03  3 27 23 41  0.0000000  0 11G14G 2G15G26G17G 6G23G18G29G16G 3
  24164612.257    -8064180.54949  -5996312.36045  24164611.968    24164624.080
  24738112.799    -4496012.80449  -3491048.36145  24738112.041    24738123.162
  20544729.097    -8902335.97649  -6926031.00048  20544728.371    20544734.808
  22859413.940     4693410.35349   3665133.47346  22859414.007    22859420.775
  20919263.953       46376.83149     64749.46747  20919263.375    20919270.028
  23271234.056    14062856.07549  10950353.86946  23271233.880    23271242.892
  20776857.497    -1836176.67449  -1424172.59648  20776856.911    20776863.093
  20362956.743    -7362716.85649  -5725201.60648  20362956.339    20362961.233
  24817287.388     9767260.71049   7609102.50745  24817287.111    24817295.133
  23835596.358     2459317.17849   1919722.84645  23835595.940    23835605.199
  23081471.021   -11786220.15149  -9173038.92446  23081470.770    23081478.350
 03  3 27 23 41 30.0000000  0 11G14G 2G15G26G17G 6G23G18G29G16G 3
  24143103.473    -8177208.41949  -6084385.60645  24143103.019    24143115.118
  24740897.929    -4481377.33249  -3479644.24045  24740897.173    24740908.259
  20539098.000    -8931927.62149  -6949089.41548  20539097.259    20539103.694
  22874618.154     4773308.95649   3727392.06146  22874618.261    22874625.024
  20923175.372       66931.45949     80766.04847  20923174.778    20923181.444
  23291204.790    14167802.11049  11032129.82646  23291204.554    23291213.660
  20781727.907    -1810582.42349  -1404229.02548  20781727.339    20781733.511
  20362840.003    -7363330.36449  -5725679.65548  20362839.590    20362844.516
  24834310.663     9856719.09949   7678810.28045  24834310.325    24834318.504
  23846112.243     2514577.94349   1962783.02645  23846111.780    23846121.099
  23065919.476   -11867943.91849  -9236719.72946  23065919.217    23065926.809
 03  3 27 23 42  0.0000000  0 11G14G 2G15G26G17G 6G23G18G29G16G 3
  24121603.692    -8290188.00849  -6172421.25145  24121603.522    24121615.239
  24743754.263    -4466367.20449  -3467948.15745  24743753.526    24743764.649
  20533512.271    -8961280.73449  -6971961.96448  20533511.546    20533518.001
  22889910.859     4853672.28149   3790012.79146  22889910.934    22889917.666
  20927134.646       87737.46249     96978.50747  20927134.066    20927140.730
  23311211.484    14272937.80249  11114053.56046  23311211.334    23311220.471
  20786653.930    -1784695.94449  -1384057.74448  20786653.359    20786659.556
  20362795.486    -7363564.17849  -5725861.83548  20362795.080    20362799.998
  24851383.312     9946436.29149   7748719.68145  24851383.174    24851391.122
  23856688.273     2570154.60149   2006089.35545  23856687.779    23856697.051
  23050431.232   -11949334.91649  -9300141.23446  23050430.999    23050438.535
 03  3 27 23 42 30.0000000  0 11G14G 2G15G26G17G 6G23G18G29G16G 3
  24100114.020    -8403115.83449  -6260416.55245  24100113.799    24100125.399
  24746681.879    -4450983.01449  -3455960.60945  24746681.199    24746692.333
  20527972.257    -8990393.56549  -6994647.28048  20527971.531    20527977.975
  22905291.572     4934498.31949   3852994.05846  22905291.676    22905298.423
  20931142.065      108796.69349    113388.28447  20931141.482    20931148.183
  23331254.071    14378261.48349  11196123.76146  23331253.859    23331263.040
  20791635.422    -1758518.19549  -1363659.50248  20791634.831    20791641.024
  20362823.124    -7363419.01849  -5725748.71648  20362822.711    20362827.629
  24868504.898    10036410.49548   7818829.39545  24868504.732    24868512.738
  23867324.045     2626045.05849   2049640.19445  23867323.625    23867332.872
  23035006.905   -12030390.31549  -9363301.22746  23035006.647    23035014.231
 03  3 27 23 43  0.0000000  0 11G14G 2G15G26G17G 6G23G18G29G16G 3
  24078634.556    -8515990.08249  -6348370.10645  24078634.230    24078645.733
  24749680.146    -4435227.08849  -3443683.39845  24749679.533    24749690.674
  20522478.037    -9019265.86549  -7017145.16848  20522477.325    20522483.749
  22920759.638     5015783.43349   3916333.04146  22920759.738    22920766.517
  20935197.603      130108.48049    129994.85647  20935197.025    20935203.709
  23351331.783    14483769.97749  11278337.97646  23351331.619    23351340.773
  20796671.785    -1732051.76349  -1343036.31248  20796671.224    20796677.412
  20362922.548    -7362896.36849  -5725341.44748  20362922.132    20362927.059
  24885674.307    10126638.51549   7889136.84345  24885674.276    24885682.659
  23878018.776     2682245.58449   2093432.65445  23878018.322    23878027.643
  23019646.691   -12111108.24849  -9426198.26846  23019646.420    23019654.034
 03  3 27 23 43 30.0000000  0 10G14G 2G15G26G17G 6G23G18G16G 3
  24057165.701    -8628807.23749  -6436279.18945  24057165.491    24057176.944
  24752749.138    -4419099.99249  -3431116.96145  24752748.519    24752759.770
  20517029.921    -9047896.03049  -7039454.37948  20517029.196    20517035.605
  22936314.657     5097525.54849   3980028.15346  22936314.769    22936321.568
  20939301.499      151674.46049    146799.50547  20939300.904    20939307.567
  23371444.465    14589461.69949  11360694.97746  23371444.245    23371453.425
  20801762.986    -1705297.54049  -1322188.86448  20801762.410    20801768.601
  20363093.737    -7361996.81949  -5724640.49048  20363093.324    20363098.236
  23888772.175     2738754.43749   2137465.35845  23888771.707    23888781.066
  23004351.377   -12191485.71649  -9488830.01946  23004351.099    23004358.615
 03  3 27 23 44  0.0000000  0 10G14G 2G15G26G17G 6G23G18G16G 3
  24035708.544    -8741564.66049  -6524141.72545  24035708.206    24035719.567
  24755888.453    -4402603.17649  -3418262.43445  24755887.885    24755899.189
  20511628.063    -9076282.89349  -7061574.00548  20511627.346    20511633.756
  22951956.191     5179721.84749   4044077.15346  22951956.231    22951963.147
  20943453.884      173495.44749    163802.85747  20943453.299    20943459.963
  23391591.466    14695334.14549  11443192.78846  23391591.228    23391600.465
  20806908.587    -1678257.11649  -1301118.40748  20806907.997    20806914.185
  20363336.420    -7360721.46549  -5723646.70148  20363336.006    20363340.928
  23899583.690     2795568.73649   2181736.07245  23899583.263    23899592.694
  22989121.271   -12271520.21249  -9551194.50646  22989120.962    22989128.590
 03  3 27 23 44 30.0000000  0 10G14G 2G15G26G17G 6G23G18G16G 3
  24014262.768    -8854260.96149  -6611956.64445  24014262.463    24014273.880
  24759097.576    -4385739.59749  -3405122.11745  24759097.034    24759108.342
  20506272.444    -9104426.73849  -7083504.27048  20506271.743    20506278.158
  22967683.326     5262368.34549   4108476.94746  22967683.404    22967690.355
  20947654.637      195570.52249    181004.19347  20947654.051    20947660.727
  23411772.205    14801383.81249  11525828.69045  23411771.918    23411781.201
  20812108.131    -1650933.38049  -1279827.19048  20812107.538    20812113.730
  20363650.194    -7359072.45349  -5722361.75048  20363649.779    20363654.703
  23910452.509     2852684.32049   2226241.56145  23910452.079    23910461.527
  22973956.744   -12351210.31749  -9613290.63146  22973956.401    22973963.994
 03  3 27 23 45  0.0000000  0 10G14G 2G15G26G17G 6G23G18G16G 3
  23992829.414    -8966892.43949  -6699721.05545  23992829.091    23992840.542
  24762376.445    -4368509.52349  -3391696.22445  24762376.014    24762387.255
  20500963.460    -9132325.66449  -7105243.68548  20500962.739    20500969.139
  22983495.837     5345463.20749   4173226.14646  22983495.946    22983502.887
  20951904.111      217901.41849    198404.86847  20951903.489    20951910.171
  23431986.378    14907609.41049  11608601.70445  23431986.183    23431995.425
  20817361.509    -1623326.83549  -1258315.60548  20817360.911    20817367.092
  20364035.077    -7357049.93649  -5720785.75648  20364034.672    20364039.574
  23921378.368     2910099.44549   2270980.43045  23921378.014    23921387.406
  22958858.281   -12430552.86749  -9675115.94146  22958857.934    22958865.510
 03  3 27 23 45 30.0000000  0 10G14G 2G15G26G17G 6G23G18G16G 3
  23971408.873    -9079456.61149  -6787433.03645  23971408.540    23971419.897
  24765724.687    -4350914.91649  -3377986.27745  24765724.145    24765735.529
  20495701.195    -9159979.04549  -7126791.77048  20495700.462    20495706.875
  22999393.037     5429003.29849   4238322.26346  22999393.142    22999400.063
  20956202.362      240488.83249    216005.43147  20956201.753    20956208.426
  23452233.603    15014008.19849  11691509.66445  23452233.346    23452242.603
  20822668.321    -1595439.41449  -1236585.15348  20822667.717    20822673.891
  20364490.755    -7354655.32549  -5718919.81648  20364490.357    20364495.254
  23932360.650     2967810.96749   2315950.28645  23932360.291    23932369.624
  22943826.384   -12509545.63749  -9736668.69746  22943826.090    22943833.668
 03  3 27 23 46  0.0000000  0 10G14G 2G15G26G17G 6G23G18G16G 3
  23950001.671    -9191950.30149  -6875090.10045  23950001.360    23950012.612
  24769142.032    -4332956.83749  -3363993.11645  24769141.580    24769152.933
  20490485.892    -9187385.48249  -7148147.42948  20490485.172    20490491.586
  23015374.422     5512986.25949   4303763.45346  23015374.537    23015381.596
  20960549.688      263333.84649    233806.72547  20960549.064    20960555.730
  23472513.305    15120578.26849  11774551.08745  23472513.077    23472522.430
  20828028.296    -1567272.36549  -1214636.81148  20828027.726    20828033.891
  20365017.131    -7351889.21349  -5716764.40048  20365016.722    20365021.611
  23943398.862     3025816.43549   2361149.16745  23943398.500    23943407.857
  22928861.641   -12588185.68349  -9797946.60946  22928861.360    22928868.902
 03  3 27 23 46 30.0000000  0 10G14G 2G15G26G17G 6G23G18G16G 3
  23928608.333    -9304371.86049  -6962690.95745  23928608.030    23928619.180
  24772628.107    -4314638.12449  -3349718.94245  24772627.597    24772638.873
  20485317.602    -9214544.88949  -7169310.59548  20485316.900    20485323.322
  23031439.493     5597407.95949   4369546.56546  23031439.467    23031446.550
  20964945.946      286436.37649    251808.67847  20964945.320    20964952.003
  23492824.974    15227316.29149  11857723.36845  23492824.766    23492834.199
  20833441.063    -1538828.38949  -1192472.67948  20833440.469    20833446.625
  20365613.764    -7348753.84549  -5714321.25248  20365613.349    20365618.242
  23954492.242     3084111.86649   2406573.99345  23954491.929    23954501.271
  22913964.238   -12666471.96049  -9858948.85046  22913963.933    22913971.465
 03  3 27 23 47  0.0000000  0 10G14G 2G15G26G17G 6G23G18G16G 3
  23907229.466    -9416717.26749  -7050232.49645  23907229.101    23907240.258
  24776182.658    -4295959.00349  -3335163.93845  24776182.096    24776193.597
  20480196.778    -9241454.95649  -7190279.47448  20480196.075    20480202.504
  23047587.637     5682267.13149   4435670.52546  23047587.617    23047594.734
  20969391.439      309797.68849    270012.27547  20969390.843    20969397.549
  23513168.491    15334221.14349  11941025.63645  23513168.212    23513177.688
  20838906.380    -1510107.84249  -1170093.04348  20838905.806    20838911.959
  20366280.731    -7345248.86649  -5711590.10048  20366280.328    20366285.212
  23965640.562     3142695.83949   2452223.66245  23965640.143    23965649.594
  22899134.805   -12744400.62649  -9919672.44046  22899134.500    22899142.087
 03  3 27 23 47 30.0000000  0 10G14G 2G15G26G17G 6G23G18G16G 3
  23885865.481    -9528984.53449  -7137713.15045  23885865.070    23885876.149
  24779805.442    -4276921.62549  -3320329.77645  24779804.828    24779816.356
  20475123.520    -9268114.94749  -7211053.48848  20475122.837    20475129.219
  23063818.454     5767560.13249   4502132.56146  23063818.441    23063825.529
  20973886.271      333418.37949    288417.98847  20973885.711    20973892.420
  23533543.092    15441289.84549  12024455.58845  23533542.857    23533552.393
  20844423.993    -1481112.81149  -1147499.51748  20844423.396    20844429.541
  20367017.686    -7341376.10349  -5708572.36048  20367017.277    20367022.165
  23976843.110     3201565.08749   2498095.61545  23976842.707    23976852.255
  22884373.816   -12821969.91149  -9980115.98646  22884373.538    22884381.111
 03  3 27 23 48  0.0000000  0 10G14G 2G15G26G17G 6G23G18G16G 3
  23864516.852    -9641170.85449  -7225130.73545  23864516.400    23864527.480
  24783496.085    -4257527.62949  -3305217.73145  24783495.522    24783507.158
  20470097.989    -9294524.30049  -7231632.20148  20470097.317    20470103.713
  23080131.156     5853283.85249   4568930.21346  23080131.137    23080138.252
  20978430.596      357298.82049    307026.10547  20978430.015    20978436.728
  23553948.441    15548519.98449  12108011.33545  23553948.201    23553957.807
  20849993.447    -1451845.16149  -1124693.56548  20849992.850    20849999.015
  20367824.374    -7337136.82749  -5705269.02948  20367823.969    20367828.870
  23988099.365     3260716.32549   2544187.29145  23988098.874    23988108.441
  22869681.653   -12899177.61749 -10040277.78946  22869681.389    22869688.948
 03  3 27 23 48 30.0000000  0 10G14G 2G15G26G17G 6G23G18G16G 3
  23843184.123    -9753273.35249  -7312483.00645  23843183.728    23843194.604
  24787254.384    -4237777.87549  -3289828.47945  24787253.761    24787265.463
  20465120.427    -9320681.54749  -7252014.46448  20465119.762    20465126.157
  23096525.404     5939436.16849   4636061.83446  23096525.418    23096532.512
  20983024.574      381440.11149    325837.48647  20983023.975    20983030.704
  23574384.203    15655909.80749  12191691.50645  23574383.913    23574393.712
  20855614.523    -1422306.12449  -1101676.13848  20855613.919    20855620.097
  20368700.711    -7332531.49749  -5701680.45848  20368700.322    20368705.237
  23999408.857     3320147.14249   2590496.83745  23999408.425    23999417.962
  22855058.831   -12976020.81949 -10100155.55446  22855058.572    22855066.100
 03  3 27 23 49  0.0000000  0 10G14G 2G15G26G17G 6G23G18G16G 3
  23821867.970    -9865289.62449  -7399768.09545  23821867.495    23821878.434
  24791079.975    -4217674.91849  -3274164.00645  24791079.413    24791090.989
  20460190.924    -9346586.26449  -7272199.95048  20460190.235    20460196.627
  23113000.593     6026013.34349   4703524.51946  23113000.662    23113007.655
  20987668.132      405842.22249    344852.09647  20987667.540    20987674.278
  23594849.755    15763456.26749  12275493.71545  23594849.445    23594859.365
  20861286.825    -1392497.85349  -1078448.92148  20861286.242    20861292.420
  20369646.403    -7327561.90249  -5697808.04948  20369646.007    20369650.914
  24010770.870     3379854.10849   2637021.55545  24010770.499    24010780.051
  22840505.721   -13052497.80249 -10159747.96046  22840505.417    22840513.001
 03  3 27 23 49 30.0000000  0 10G14G 2G15G26G17G 6G23G18G16G 3
  23800568.663    -9977216.77349  -7486983.74745  23800568.210    23800578.969
  24794972.557    -4197220.04249  -3258225.29945  24794972.018    24794983.626
  20455309.716    -9372237.00749  -7292187.53548  20455309.024    20455315.446
  23129556.047     6113012.85349   4771316.27846  23129556.111    23129563.210
  20992361.580      430506.32949    364070.86747  20992360.991    20992367.724
  23615344.697    15871157.23049  12359416.31245  23615344.377    23615354.392
  20867010.179    -1362421.58049  -1055012.86448  20867009.600    20867015.761
  20370661.223    -7322229.12549  -5693652.63548  20370660.825    20370665.726
  24022184.958     3439834.72649   2683759.48745  24022184.587    24022194.174
  22826022.839   -13128605.74649 -10219052.79746  22826022.514    22826030.095
 03  3 27 23 50  0.0000000  0 10G14G 2G15G26G17G 6G23G18G16G 3
  23779286.853   -10089051.76349  -7574127.58445  23779286.523    23779297.125
  24798931.800    -4176414.62549  -3242013.45545  24798931.417    24798942.849
  20450477.105    -9397632.59449  -7311976.30248  20450476.420    20450482.841
  23146191.436     6200432.04349   4839435.06446  23146191.515    23146198.522
  20997104.984      455432.97249    383494.21047  20997104.367    20997111.099
  23635868.645    15979010.56849  12443457.63645  23635868.379    23635878.426
  20872784.221    -1332078.69849  -1031369.07048  20872783.633    20872789.823
  20371744.924    -7316534.05749  -5689214.92048  20371744.525    20371749.443
  24033650.497     3500086.25449   2730708.54045  24033650.200    24033659.895
  22811610.655   -13204342.07149 -10278068.07546  22811610.371    22811617.882
 03  3 27 23 50 30.0000000  0 10G14G 2G15G26G17G 6G23G18G16G 3
  23758023.098   -10200792.39249  -7661197.91945  23758022.694    23758033.340
  24802957.316    -4155261.12149  -3225530.36845  24802956.931    24802968.520
  20445693.122    -9422772.48449  -7331565.82148  20445692.452    20445698.856
  23162905.979     6288267.31549   4907878.07546  23162906.044    23162913.116
  21001898.449      480622.83149    403122.65547  21001897.859    21001904.597
  23656421.070    16087013.20949  12527615.31345  23656420.741    23656430.892
  20878608.575    -1301471.56049  -1007519.35548  20878608.000    20878614.169
  20372897.299    -7310478.28849  -5684496.13748  20372896.907    20372901.813
  24045167.035     3560605.33849   2777866.05345  24045166.717    24045176.357
  22797269.518   -13279705.08649 -10336792.45146  22797269.249    22797276.768
 03  3 27 23 51  0.0000000  0 10G14G 2G15G26G17G 6G23G18G16G 3
  23736777.874   -10312435.54149  -7748192.28345  23736777.402    23736787.956
  24807048.906    -4133760.51749  -3208776.81245  24807048.418    24807060.150
  20440958.122    -9447655.21249  -7350954.95548  20440957.420    20440963.819
  23179699.238     6376516.46649   4976643.57146  23179699.338    23179706.391
  21006742.208      506076.81349    422956.91147  21006741.635    21006748.342
  23677001.552    16195163.51649  12611888.06045  23677001.182    23677011.415
  20884483.015    -1270601.18149   -983464.52248  20884482.444    20884488.647
  20374118.235    -7304062.36949  -5679496.71648  20374117.842    20374122.739
  24056733.988     3621389.54149   2825230.16345  24056733.750    24056743.415
  22783000.005   -13354691.66949 -10395223.50446  22782999.748    22783007.237
 03  3 27 23 51 30.0000000  0 10G14G 2G15G26G17G 6G23G18G16G 3
  23715551.721   -10423978.79849  -7835108.82645  23715551.166    23715561.794
  24811206.101    -4111914.74249  -3191754.29745  24811205.650    24811217.265
  20436272.115    -9472280.20049  -7370143.25348  20436271.434    20436277.851
  23196570.527     6465175.98049   5045728.84545  23196570.728    23196577.736
  21011636.245      531795.11349    442997.13147  21011635.667    21011642.356
  23697609.574    16303458.49849  12696273.54245  23697609.186    23697619.476
  20890407.149    -1239469.66149   -959206.20048  20890406.582    20890412.777
  20375407.362    -7297287.94149  -5674217.93848  20375406.959    20375411.857
  24068350.824     3682435.54049   2872798.26145  24068350.508    24068360.308
  22768802.507   -13429299.95049 -10453359.79046  22768802.216    22768809.646
 03  3 27 23 52  0.0000000  0 10G14G 2G15G26G17G 6G23G18G16G 3
  23694345.074   -10535419.08149  -7921945.12145  23694344.598    23694355.062
  24815428.818    -4089725.18649  -3174463.91045  24815428.316    24815440.006
  20431635.493    -9496645.87549  -7389129.49148  20431634.784    20431641.192
  23213519.451     6554243.46949   5115132.01745  23213519.645    23213526.718
  21016580.819      557778.93649    463244.25247  21016580.254    21016586.957
  23718244.691    16411896.21249  12780770.22745  23718244.371    23718254.727
  20896380.806    -1208078.03949   -934745.19948  20896380.217    20896386.438
  20376764.527    -7290155.95149  -5668660.54148  20376764.130    20376769.010
  24080016.965     3743740.87649   2920568.44045  24080016.701    24080026.491
  22754677.445   -13503527.38849 -10511199.31346  22754677.175    22754684.524
 03  3 27 23 52 30.0000000  0 10G14G 2G15G26G17G 6G23G18G16G 3
  23673158.561   -10646753.53049  -8008698.96545  23673158.114    23673168.541
  24819716.504    -4067193.66349  -3156907.05545  24819715.938    24819727.874
  20427048.405    -9520751.31749  -7407912.94448  20427047.689    20427054.097
  23230545.582     6643715.84249   5184850.70145  23230545.728    23230552.794
  21021576.032      584028.82449    483698.69347  21021575.466    21021582.158
  23738906.570    16520474.30249  12865376.28545  23738906.327    23738916.701
  20902403.563    -1176428.11949   -910082.92948  20902402.968    20902409.197
  20378189.540    -7282667.46049  -5662825.35048  20378189.143    20378194.008
  24091731.986     3805302.69449   2968538.45945  24091731.651    24091741.592
  22740625.342   -13577371.47349 -10568740.11746  22740625.102    22740632.438
 03  3 27 23 53  0.0000000  0 10G14G 2G15G26G17G 6G23G18G16G 3
  23651992.615   -10757980.30249  -8095368.90245  23651992.137    23652002.477
  24824068.869    -4044322.53649  -3139085.57545  24824068.215    24824080.235
  20422510.877    -9544596.07949  -7426493.27348  20422510.170    20422516.565
  23247648.004     6733589.64749   5254882.18245  23247648.119    23247655.266
  21026621.833      610544.77249    504360.45647  21026621.273    21026627.972
  23759594.717    16629189.80149  12950089.40945  23759594.355    23759604.710
  20908475.094    -1144522.14649   -885221.13948  20908474.504    20908480.744
  20379682.107    -7274824.11249  -5656713.64848  20379681.720    20379686.555
  24103495.067     3867117.22649   3016705.40945  24103494.688    24103504.699
  22726646.547   -13650830.50249 -10625980.87946  22726646.280    22726653.586
 03  3 27 23 53 30.0000000  0 10G14G 2G15G26G17G 6G23G18G16G 3
  23630847.850   -10869096.23449  -8181952.49145  23630847.295    23630857.579
  24828485.651    -4021113.16749  -3121000.53945  24828484.858    24828496.972
  20418023.258    -9568178.51349  -7444869.18848  20418022.567    20418028.974
  23264826.313     6823862.06949   5325224.26645  23264826.387    23264833.618
  21031718.482      637327.68449    525230.25247  21031717.925    21031724.612
  23780308.489    16738040.67449  13034908.06245  23780308.165    23780318.601
  20914595.066    -1112361.41349   -860160.82748  20914594.497    20914600.708
  20381242.025    -7266626.67749  -5650326.02948  20381241.630    20381246.491
  24115305.753     3929181.77749   3065067.16845  24115305.361    24115315.346
  22712741.480   -13723902.07649 -10682919.72746  22712741.236    22712748.486
 03  3 27 23 54  0.0000000  0 10G14G 2G15G26G17G 6G23G18G16G 3
  23609724.651   -10980098.02449  -8268447.12345  23609724.178    23609734.279
  24832966.496    -3997566.88549  -3102652.97645  24832965.705    24832977.861
  20413585.881    -9591497.22849  -7463039.60848  20413585.159    20413591.578
  23282079.997     6914530.58449   5395874.99945  23282080.051    23282087.388
  21036866.126      664378.64149    546308.90647  21036865.561    21036872.233
  23801047.743    16847024.94949  13119830.62545  23801047.517    23801057.854
  20920763.314    -1079947.09249   -834902.92448  20920762.747    20920768.977
  20382869.110    -7258076.11649  -5643663.25348  20382868.734    20382873.585
  24127163.553     3991493.91249   3113621.85645  24127163.162    24127173.245
  22698910.662   -13796583.31349 -10739554.42146  22698910.441    22698917.673
 03  3 27 23 54 30.0000000  0  9G14G15G26G17G 6G23G18G16G 3
  23588624.483   -11090979.50749  -8354848.01745  23588624.006    23588633.994
  20409199.514    -9614547.82849  -7481001.10848  20409198.786    20409205.209
  23299409.221     7005595.93949   5466834.95545  23299409.244    23299416.516
  21042065.631      691702.12749    567599.91947  21042065.062    21042071.745
  23821812.508    16956143.87149  13204858.09545  23821812.312    23821822.775
  20926980.178    -1047277.30349   -809445.95148  20926979.613    20926985.841
  20384563.858    -7249170.20349  -5636723.58248  20384563.480    20384568.341
  24139068.641     4054054.49849   3162370.13045  24139068.180    24139078.285
  22685155.253   -13868868.54249 -10795880.53746  22685154.994    22685162.162
 03  3 27 23 55  0.0000000  0  9G14G15G26G17G 6G23G18G16G 3
  23567546.798   -11201742.24849  -8441156.39845  23567546.417    23567556.320
  20404863.495    -9637333.55249  -7498756.20648  20404862.778    20404869.209
  23316812.509     7097050.71849   5538098.34645  23316812.576    23316819.835
  21047316.324      719294.41849    589100.38947  21047315.727    21047322.403
  23842601.644    17065390.63549  13289985.19345  23842601.430    23842611.926
  20933244.524    -1014357.81449   -783794.40648  20933243.967    20933250.177
  20386325.143    -7239914.57049  -5629511.40048  20386324.761    20386329.619
  24151019.542     4116856.04949   3211306.17445  24151019.157    24151029.193
  22671474.757   -13940759.64249 -10851899.54846  22671474.514    22671481.629
 03  3 27 23 55 30.0000000  0  9G14G15G26G17G 6G23G18G16G 3
  23546492.104   -11312384.47549  -8527370.87545  23546491.703    23546501.520
  20400577.935    -9659854.36349  -7516304.88648  20400577.214    20400583.652
  23334289.136     7188890.90349   5609662.06745  23334289.227    23334296.553
  21052618.015      747154.92049    610809.84747  21052617.426    21052624.095
  23863414.477    17174761.84649  13375209.25345  23863414.242    23863424.745
  20939555.862     -981191.50249   -757950.53448  20939555.317    20939561.529
  20388152.562    -7230311.42349  -5622028.42948  20388152.186    20388157.040
  24163015.555     4179894.69849   3260426.95745  24163015.172    24163025.279
  22657869.635   -14012254.98849 -10907610.17746  22657869.344    22657876.501
 03  3 27 23 56  0.0000000  0  9G14G15G26G17G 6G23G18G16G 3
  23525460.910   -11422903.13649  -8613489.08345  23525460.503    23525470.272
  20396343.022    -9682108.85249  -7533646.03848  20396342.326    20396348.763
  23351838.610     7281114.02449   5681524.16945  23351838.619    23351846.070
  21057971.012      775285.15349    632729.50047  21057970.440    21057977.129
  23884250.656    17284255.38649  13460528.62345  23884250.387    23884260.882
  20945913.969     -947779.47249   -731915.19948  20945913.406    20945919.619
  20390045.957    -7220361.51649  -5614275.25448  20390045.575    20390050.444
  24175056.162     4243167.79749   3309730.42245  24175055.836    24175065.961
  22644340.289   -14083352.19149 -10963010.56446  22644340.000    22644347.150
 03  3 27 23 56 30.0000000  0  9G14G15G26G17G 6G23G18G16G 3
  23504453.920   -11533294.64949  -8699508.20845  23504453.526    23504463.171
  20392159.163    -9704095.09549  -7550778.16948  20392158.482    20392164.918
  23369460.557     7373717.82449   5753682.89845  23369460.559    23369467.983
  21063375.468      803685.99049    654860.00747  21063374.919    21063381.634
  23905109.706    17393869.73849  13545942.12845  23905109.497    23905120.008
  20952318.696     -914122.54849   -705689.03448  20952318.132    20952324.347
  20392005.304    -7210065.08749  -5606252.06348  20392004.919    20392009.782
  24187141.041     4306673.25349   3359214.94745  24187140.690    24187150.971
  22630887.252   -14154048.15349 -11018098.28446  22630886.983    22630894.124
 03  3 27 23 57  0.0000000  0  9G14G15G26G17G 6G23G18G16G 3
  23483471.604   -11643556.51349  -8785426.31145  23483471.151    23483480.847
  20388026.544    -9725812.08949  -7567700.49748  20388025.883    20388032.303
  23387154.339     7466698.91949   5826135.63845  23387154.319    23387161.780
  21068831.671      832358.24749    677202.01547  21068831.092    21068837.806
  23925991.293    17503602.26849  13631447.74145  23925991.110    23926001.674
  20958769.610     -880222.77249   -679273.63148  20958769.036    20958775.257
  20394030.337    -7199423.60849  -5597960.00148  20394029.927    20394034.805
  24199269.495     4370407.62449   3408877.83945  24199269.144    24199279.532
  22617510.931   -14224341.01549 -11072871.91546  22617510.643    22617517.802
 03  3 27 23 57 30.0000000  0  9G14G15G26G17G 6G23G18G16G 3
  23462514.579   -11753685.64849  -8871241.00445  23462514.069    23462523.690
  20383945.434    -9747258.44049  -7584411.93548  20383944.789    20383951.178
  23404919.512     7560054.67049   5898880.31245  23404919.500    23404926.925
  21074339.665      861302.90249    699756.27947  21074339.089    21074345.777
  23946895.091    17613451.04949  13717043.91445  23946894.859    23946905.453
  20965266.532     -846081.28649   -652669.88348  20965265.958    20965272.163
  20396120.795    -7188438.06649  -5589399.83948  20396120.400    20396125.256
  24211441.033     4434368.53149   3458717.25445  24211440.688    24211451.217
  22604211.880   -14294228.00149 -11127329.27246  22604211.600    22604218.760
 03  3 27 23 58  0.0000000  0  9G14G15G26G17G 6G23G18G16G 3
  23441583.360   -11863679.11549  -8956949.98845  23441582.920    23441592.342
  20379916.053    -9768432.95049  -7600911.55048  20379915.398    20379921.783
  23422755.408     7653782.46849   5971914.88946  23422755.424    23422762.844
  21079899.559      890520.25549    722523.03347  21079898.980    21079905.673
  23967820.408    17723413.71449  13802728.83945  23967820.243    23967830.928
  20971809.186     -811699.58149   -625878.95047  20971808.599    20971814.798
  20398276.558    -7177109.46749  -5580572.36348  20398276.167    20398281.049
  24223655.139     4498553.06949   3508730.92145  24223654.832    24223665.306
  22590990.484   -14363706.71949 -11181468.50046  22590990.243    22590997.381
 03  3 27 23 58 30.0000000  0  9G14G15G26G17G 6G23G18G16G 3
  23420678.416   -11973534.54949  -9042551.40245  23420677.952    23420687.304
  20375938.510    -9789335.18349  -7617198.99948  20375937.822    20375944.195
  23440661.353     7747878.74849   6045236.57946  23440661.357    23440668.878
  21085511.467      920010.85549    745502.70647  21085510.885    21085517.585
  23988766.925    17833487.42449  13888500.27545  23988766.811    23988777.429
  20978397.134     -777079.65349   -598902.39447  20978396.538    20978402.739
  20400497.277    -7165439.49449  -5571478.88048  20400496.870    20400501.763
  24235911.218     4562957.88849   3558916.22845  24235910.887    24235921.386
  22577847.151   -14432775.30149 -11235288.14246  22577846.862    22577854.013
 03  3 27 23 59  0.0000000  0  9G14G15G26G17G 6G23G18G16G 3
  23399800.341   -12083248.85049  -9128042.85345  23399799.746    23399809.114
  20372013.098    -9809963.33849  -7633272.88148  20372012.399    20372018.778
  23458637.014     7842340.88449   6118843.35846  23458637.024    23458644.538
  21091175.578      949775.82749    768696.17447  21091174.963    21091181.703
  24009734.268    17943670.26249  13974356.75545  24009734.087    24009744.783
  20985030.217     -742222.56349   -571741.02747  20985029.626    20985035.831
  20402782.808    -7153428.93849  -5562120.00748  20402782.418    20402787.285
  24248208.711     4627580.54849   3609271.28845  24248208.424    24248218.901
  22564782.402   -14501431.06249 -11288786.10246  22564782.096    22564789.242
